UAE81T OMDB-NZAA

Flight info

Callsign UAE81T
Flight time 16h 24m
Altitude 33000
Route ANVIX L223 TARDI N629 GIDAN P570 EMURU M300 VASTU P895 CIA/N0503F350 P895 BIKOK M641 DOGAR DCT DAOVO DCT PIBED DCT 09S094E/N0494F370 10S095E DCT POROR DCT 19S106E 21S109E DCT ATLOD/N0481F390 DCT ISDOR DCT LEO DCT 32S128E DCT KAMBI N640 AD V255 BENDO Y12 RELEP DCT MOMSY/N0476F410 DCT MIKEG N759 PEBLU
Aircraft A359/H-SDE2E3GHIJ3J4J5LM1ORWXY/LB1D1

Departure

Time 2026-04-25 13:19
Airport Dubai International Airport (OMDB)

Arrival

Time 2026-04-26 05:44
Airport Auckland International Airport (NZAA)
Time Latitude Longitude Altitude Speed Heading
2026-04-25 12:45 25.24885 55.36298 27 ft 0 kts 212°
2026-04-25 13:00 25.24910 55.36315 26 ft 4 kts 212°
2026-04-25 13:00 25.24933 55.36331 24 ft 4 kts 211°
2026-04-25 13:01 25.24952 55.36344 26 ft 4 kts 230°
2026-04-25 13:01 25.24957 55.36365 24 ft 4 kts 300°
2026-04-25 13:01 25.24945 55.36386 25 ft 1 kts 302°
2026-04-25 13:06 25.24946 55.36384 23 ft 0 kts 301°
2026-04-25 13:06 25.24958 55.36362 24 ft 7 kts 302°
2026-04-25 13:07 25.24981 55.36326 27 ft 6 kts 305°
2026-04-25 13:07 25.25002 55.36288 27 ft 7 kts 300°
2026-04-25 13:07 25.25038 55.36221 27 ft 11 kts 301°
2026-04-25 13:07 25.25077 55.36152 27 ft 10 kts 302°
2026-04-25 13:08 25.25115 55.36085 27 ft 10 kts 302°
2026-04-25 13:08 25.25151 55.36021 27 ft 10 kts 302°
2026-04-25 13:08 25.25186 55.35959 27 ft 9 kts 302°
2026-04-25 13:08 25.25220 55.35899 27 ft 9 kts 302°
2026-04-25 13:09 25.25252 55.35842 27 ft 9 kts 302°
2026-04-25 13:09 25.25284 55.35785 27 ft 9 kts 302°
2026-04-25 13:09 25.25322 55.35718 27 ft 11 kts 302°
2026-04-25 13:09 25.25365 55.35641 27 ft 12 kts 302°
2026-04-25 13:10 25.25413 55.35557 27 ft 14 kts 302°
2026-04-25 13:10 25.25465 55.35463 27 ft 15 kts 301°
2026-04-25 13:10 25.25521 55.35363 27 ft 16 kts 302°
2026-04-25 13:10 25.25576 55.35265 27 ft 12 kts 302°
2026-04-25 13:11 25.25619 55.35187 27 ft 10 kts 301°
2026-04-25 13:11 25.25647 55.35151 27 ft 6 kts 334°
2026-04-25 13:11 25.25708 55.35172 27 ft 12 kts 29°
2026-04-25 13:11 25.25753 55.35203 27 ft 12 kts 32°
2026-04-25 13:12 25.25818 55.35247 27 ft 12 kts 31°
2026-04-25 13:12 25.25886 55.35293 27 ft 11 kts 31°
2026-04-25 13:12 25.25950 55.35335 27 ft 11 kts 31°
2026-04-25 13:12 25.25986 55.35372 28 ft 10 kts 54°
2026-04-25 13:13 25.26009 55.35476 28 ft 14 kts 91°
2026-04-25 13:13 25.25964 55.35601 28 ft 19 kts 121°
2026-04-25 13:13 25.25894 55.35727 28 ft 19 kts 121°
2026-04-25 13:13 25.25825 55.35848 28 ft 18 kts 122°
2026-04-25 13:14 25.25759 55.35966 28 ft 18 kts 122°
2026-04-25 13:14 25.25695 55.36081 28 ft 17 kts 122°
2026-04-25 13:14 25.25632 55.36192 29 ft 17 kts 122°
2026-04-25 13:14 25.25571 55.36300 28 ft 17 kts 122°
2026-04-25 13:15 25.25509 55.36409 28 ft 17 kts 122°
2026-04-25 13:15 25.25440 55.36531 28 ft 23 kts 121°
2026-04-25 13:15 25.25337 55.36715 28 ft 31 kts 122°
2026-04-25 13:15 25.25227 55.36911 28 ft 30 kts 122°
2026-04-25 13:16 25.25119 55.37104 29 ft 29 kts 122°
2026-04-25 13:16 25.25014 55.37290 29 ft 28 kts 123°
2026-04-25 13:16 25.24910 55.37474 29 ft 28 kts 122°
2026-04-25 13:16 25.24808 55.37656 29 ft 27 kts 121°
2026-04-25 13:17 25.24719 55.37812 28 ft 20 kts 122°
2026-04-25 13:17 25.24667 55.37915 28 ft 12 kts 102°
2026-04-25 13:17 25.24703 55.37981 29 ft 10 kts 34°
2026-04-25 13:17 25.24758 55.38017 31 ft 8 kts 30°
2026-04-25 13:18 25.24789 55.38029 31 ft 4 kts
2026-04-25 13:18 25.24826 55.37994 31 ft 10 kts 300°
2026-04-25 13:18 25.24934 55.37797 32 ft 59 kts 301°
2026-04-25 13:18 25.25249 55.37228 33 ft 114 kts 302°
2026-04-25 13:19 25.25752 55.36320 32 ft 162 kts 301°
2026-04-25 13:19 25.26374 55.35200 494 ft 166 kts 302°
2026-04-25 13:19 25.26993 55.34120 968 ft 171 kts 304°
2026-04-25 13:19 25.27207 55.33759 1102 ft 175 kts 303°
2026-04-25 13:20 25.28381 55.31705 1436 ft 200 kts 302°
2026-04-25 13:20 25.29028 55.30315 1638 ft 212 kts 290°
2026-04-25 13:20 25.29151 55.28663 1853 ft 225 kts 260°
2026-04-25 13:20 25.28601 55.27027 2166 ft 230 kts 247°
2026-04-25 13:21 25.27898 55.25416 2466 ft 235 kts 246°
2026-04-25 13:21 25.27179 55.23785 2832 ft 237 kts 246°
2026-04-25 13:21 25.26463 55.22139 3190 ft 239 kts 246°
2026-04-25 13:21 25.25746 55.20480 3582 ft 239 kts 246°
2026-04-25 13:22 25.25022 55.18835 3962 ft 239 kts 243°
2026-04-25 13:22 25.23972 55.17416 4333 ft 242 kts 217°
2026-04-25 13:22 25.22428 55.16724 4594 ft 250 kts 186°
2026-04-25 13:23 25.18957 55.17325 5191 ft 261 kts 149°
2026-04-25 13:23 25.17650 55.18732 5422 ft 271 kts 122°
2026-04-25 13:23 25.16715 55.20586 5609 ft 281 kts 117°
2026-04-25 13:23 25.15821 55.22539 5867 ft 289 kts 118°
2026-04-25 13:24 25.14902 55.24514 6273 ft 289 kts 118°
2026-04-25 13:24 25.13970 55.26488 6679 ft 290 kts 118°
2026-04-25 13:24 25.13032 55.28469 7029 ft 293 kts 119°
2026-04-25 13:24 25.12089 55.30440 7414 ft 295 kts 120°
2026-04-25 13:25 25.11126 55.32443 7756 ft 297 kts 120°
2026-04-25 13:25 25.10175 55.34463 8206 ft 297 kts 117°
2026-04-25 13:25 25.09323 55.36534 8653 ft 296 kts 116°
2026-04-25 13:25 25.08493 55.38612 9058 ft 298 kts 115°
2026-04-25 13:26 25.07643 55.40713 9472 ft 300 kts 116°
2026-04-25 13:26 25.06794 55.42821 9879 ft 301 kts 115°
2026-04-25 13:26 25.05975 55.44961 10209 ft 306 kts 114°
2026-04-25 13:26 25.05142 55.47158 10392 ft 315 kts 115°
2026-04-25 13:27 25.04275 55.49425 10575 ft 325 kts 115°
2026-04-25 13:27 25.03393 55.51723 10751 ft 334 kts 115°
2026-04-25 13:27 25.02474 55.54111 10984 ft 342 kts 116°
2026-04-25 13:27 25.01395 55.56480 11183 ft 350 kts 123°
2026-04-25 13:28 25.00148 55.58816 11373 ft 358 kts 123°
2026-04-25 13:28 24.99714 55.59617 11456 ft 361 kts 124°
2026-04-25 13:28 24.97529 55.63643 11752 ft 375 kts 123°
2026-04-25 13:28 24.96178 55.66138 11930 ft 384 kts 123°
2026-04-25 13:29 24.94799 55.68685 12165 ft 388 kts 123°
2026-04-25 13:29 24.93304 55.71167 12504 ft 389 kts 128°
2026-04-25 13:29 24.91735 55.73553 12820 ft 392 kts 128°
2026-04-25 13:30 24.88494 55.78430 13437 ft 397 kts 128°
2026-04-25 13:30 24.86858 55.80892 13746 ft 400 kts 129°
2026-04-25 13:30 24.85210 55.83373 14035 ft 402 kts 128°
2026-04-25 13:31 24.81892 55.88341 14654 ft 405 kts 128°
2026-04-25 13:31 24.80195 55.90837 14895 ft 408 kts 129°
2026-04-25 13:31 24.78463 55.93318 15153 ft 410 kts 133°
2026-04-25 13:31 24.76543 55.95635 15432 ft 410 kts 137°
2026-04-25 13:32 24.74492 55.97834 15712 ft 413 kts 140°
2026-04-25 13:32 24.72378 55.99978 15985 ft 414 kts 140°
2026-04-25 13:32 24.70268 56.02078 16252 ft 417 kts 140°
2026-04-25 13:32 24.68114 56.04224 16524 ft 419 kts 140°
2026-04-25 13:33 24.65960 56.06393 16809 ft 421 kts 140°
2026-04-25 13:33 24.63813 56.08577 17156 ft 421 kts 140°
2026-04-25 13:33 24.61667 56.10775 17435 ft 423 kts 139°
2026-04-25 13:33 24.60941 56.11520 17516 ft 423 kts 139°
2026-04-25 13:34 24.57401 56.15277 17920 ft 429 kts 135°
2026-04-25 13:34 24.55383 56.17704 18166 ft 431 kts 134°
2026-04-25 13:34 24.53403 56.20188 18391 ft 433 kts 134°
2026-04-25 13:34 24.51456 56.22662 18608 ft 435 kts 133°
2026-04-25 13:35 24.49481 56.25182 18814 ft 437 kts 133°
2026-04-25 13:35 24.47489 56.27724 19038 ft 439 kts 133°
2026-04-25 13:35 24.45496 56.30267 19257 ft 441 kts 133°
2026-04-25 13:35 24.43499 56.32812 19523 ft 440 kts 133°
2026-04-25 13:36 24.41498 56.35356 19724 ft 442 kts 133°
2026-04-25 13:36 24.39485 56.37912 19932 ft 444 kts 133°
2026-04-25 13:36 24.37462 56.40479 20125 ft 445 kts 133°
2026-04-25 13:36 24.35433 56.43053 20345 ft 447 kts 133°
2026-04-25 13:37 24.33396 56.45638 20558 ft 449 kts 133°
2026-04-25 13:37 24.31372 56.48203 20743 ft 451 kts 133°
2026-04-25 13:37 24.29316 56.50811 20979 ft 453 kts 132°
2026-04-25 13:37 24.27345 56.53524 21216 ft 456 kts 128°
2026-04-25 13:38 24.25481 56.56341 21441 ft 458 kts 127°
2026-04-25 13:38 24.23652 56.59207 21673 ft 461 kts 126°
2026-04-25 13:38 24.21814 56.62094 21888 ft 463 kts 126°
2026-04-25 13:38 24.19956 56.64983 22139 ft 465 kts 127°
2026-04-25 13:39 24.18073 56.67870 22399 ft 466 kts 127°
2026-04-25 13:39 24.16170 56.70758 22632 ft 468 kts 127°
2026-04-25 13:39 24.14277 56.73609 22857 ft 470 kts 127°
2026-04-25 13:39 24.12345 56.76509 23106 ft 472 kts 127°
2026-04-25 13:40 24.10405 56.79415 23349 ft 474 kts 127°
2026-04-25 13:40 24.08454 56.82337 23563 ft 476 kts 127°
2026-04-25 13:40 24.06499 56.85263 23773 ft 477 kts 127°
2026-04-25 13:40 24.04536 56.88201 23989 ft 479 kts 127°
2026-04-25 13:41 24.02572 56.91145 24197 ft 480 kts 127°
2026-04-25 13:41 24.00600 56.94098 24427 ft 482 kts 127°
2026-04-25 13:41 23.98618 56.97057 24649 ft 483 kts 127°
2026-04-25 13:41 23.96655 56.99984 24856 ft 485 kts 127°
2026-04-25 13:42 23.94658 57.02962 25098 ft 486 kts 127°
2026-04-25 13:42 23.92652 57.05950 25334 ft 488 kts 127°
2026-04-25 13:42 23.90641 57.08946 25587 ft 490 kts 127°
2026-04-25 13:42 23.88625 57.11950 25838 ft 491 kts 127°
2026-04-25 13:43 23.86601 57.14970 26084 ft 493 kts 127°
2026-04-25 13:43 23.84570 57.17992 26350 ft 494 kts 127°
2026-04-25 13:43 23.82531 57.21024 26622 ft 496 kts 127°
2026-04-25 13:43 23.80508 57.24029 26853 ft 498 kts 127°
2026-04-25 13:44 23.78456 57.27076 27083 ft 500 kts 127°
2026-04-25 13:44 23.76393 57.30137 27325 ft 501 kts 127°
2026-04-25 13:44 23.74324 57.33206 27583 ft 503 kts 127°
2026-04-25 13:44 23.72247 57.36287 27817 ft 505 kts 127°
2026-04-25 13:45 23.70140 57.39358 28033 ft 506 kts 129°
2026-04-25 13:45 23.67959 57.42387 28241 ft 508 kts 130°
2026-04-25 13:45 23.65743 57.45394 28477 ft 510 kts 130°
2026-04-25 13:45 23.63541 57.48365 28683 ft 511 kts 130°
2026-04-25 13:46 23.61305 57.51389 28867 ft 513 kts 130°
2026-04-25 13:46 23.59073 57.54423 29059 ft 515 kts 130°
2026-04-25 13:46 23.56831 57.57482 29285 ft 516 kts 130°
2026-04-25 13:46 23.54592 57.60547 29463 ft 518 kts 129°
2026-04-25 13:47 23.52347 57.63624 29653 ft 519 kts 129°
2026-04-25 13:47 23.50859 57.65664 29771 ft 520 kts 129°
2026-04-25 13:47 23.47847 57.69792 30077 ft 520 kts 129°
2026-04-25 13:47 23.46359 57.71830 30230 ft 520 kts 130°
2026-04-25 13:48 23.43374 57.75909 30478 ft 520 kts 129°
2026-04-25 13:48 23.41117 57.78991 30709 ft 520 kts 130°
2026-04-25 13:48 23.38865 57.82062 30924 ft 519 kts 130°
2026-04-25 13:48 23.37373 57.84096 31050 ft 519 kts 130°
2026-04-25 13:49 23.34376 57.88179 31358 ft 518 kts 129°
2026-04-25 13:49 23.32878 57.90219 31518 ft 517 kts 130°
2026-04-25 13:49 23.30632 57.93276 31697 ft 517 kts 129°
2026-04-25 13:49 23.28389 57.96324 31973 ft 514 kts 129°
2026-04-25 13:50 23.26155 57.99360 32219 ft 513 kts 129°
2026-04-25 13:50 23.23226 58.03382 32536 ft 511 kts 127°
2026-04-25 13:50 23.21817 58.05486 32703 ft 510 kts 126°
2026-04-25 13:50 23.19176 58.09707 32909 ft 511 kts 124°
2026-04-25 13:51 23.17878 58.11839 32922 ft 513 kts 124°
2026-04-25 13:51 23.13911 58.18327 32921 ft 516 kts 124°
2026-04-25 13:52 23.09216 58.25831 32913 ft 516 kts 125°
2026-04-25 13:52 23.05805 58.31216 32916 ft 517 kts 125°
2026-04-25 13:53 23.01319 58.37200 32915 ft 514 kts 139°
2026-04-25 13:53 22.95571 58.41747 32917 ft 512 kts 148°
2026-04-25 13:54 22.89526 58.45790 32913 ft 512 kts 150°
2026-04-25 13:54 22.83409 58.49775 32908 ft 512 kts 150°
2026-04-25 13:55 22.77310 58.53774 32909 ft 514 kts 149°
2026-04-25 13:55 22.71234 58.57784 32900 ft 515 kts 149°
2026-04-25 13:56 22.65112 58.61829 32900 ft 515 kts 149°
2026-04-25 13:56 22.58992 58.65869 32899 ft 516 kts 149°
2026-04-25 13:57 22.52866 58.69912 32901 ft 515 kts 149°
2026-04-25 13:57 22.46788 58.73917 32900 ft 515 kts 149°
2026-04-25 13:58 22.40666 58.77947 32901 ft 515 kts 149°
2026-04-25 13:58 22.34543 58.81971 32898 ft 515 kts 149°
2026-04-25 13:59 22.28424 58.85989 32900 ft 515 kts 149°
2026-04-25 13:59 22.22679 58.90500 32892 ft 515 kts 135°
2026-04-25 14:00 22.17879 58.96232 32890 ft 515 kts 130°
2026-04-25 14:00 22.13300 59.02181 32894 ft 516 kts 129°
2026-04-25 14:01 22.08778 59.08111 32894 ft 515 kts 129°
2026-04-25 14:01 22.04217 59.14044 32885 ft 514 kts 129°
2026-04-25 14:02 21.99639 59.19964 32886 ft 514 kts 129°
2026-04-25 14:02 21.95058 59.25874 32882 ft 514 kts 129°
2026-04-25 14:03 21.90502 59.31746 32878 ft 514 kts 129°
2026-04-25 14:03 21.85921 59.37644 32871 ft 514 kts 129°
2026-04-25 14:04 21.81328 59.43553 32874 ft 515 kts 129°
2026-04-25 14:04 21.76737 59.49453 32867 ft 514 kts 129°
2026-04-25 14:05 21.72141 59.55353 32873 ft 515 kts 129°
2026-04-25 14:05 21.67572 59.61211 32870 ft 514 kts 129°
2026-04-25 14:06 21.62971 59.67103 32870 ft 515 kts 129°
2026-04-25 14:06 21.58367 59.72995 32880 ft 514 kts 129°
2026-04-25 14:07 21.53774 59.78869 32878 ft 514 kts 129°
2026-04-25 14:07 21.49190 59.84697 32878 ft 514 kts 129°
2026-04-25 14:08 21.44568 59.90552 32876 ft 514 kts 129°
2026-04-25 14:08 21.39950 59.96400 32882 ft 513 kts 129°
2026-04-25 14:09 21.35339 60.02238 32882 ft 512 kts 129°
2026-04-25 14:09 21.30768 60.08022 32884 ft 512 kts 129°
2026-04-25 14:10 21.26157 60.13850 32885 ft 512 kts 129°
2026-04-25 14:10 21.21557 60.19671 32890 ft 512 kts 129°
2026-04-25 14:11 21.16985 60.25457 32886 ft 511 kts 129°
2026-04-25 14:11 21.12392 60.31262 32892 ft 511 kts 129°
2026-04-25 14:12 21.07797 60.37066 32895 ft 511 kts 129°
2026-04-25 14:12 21.03197 60.42870 32893 ft 511 kts 129°
2026-04-25 14:13 20.98600 60.48663 32890 ft 511 kts 129°
2026-04-25 14:13 20.94033 60.54412 32897 ft 511 kts 129°
2026-04-25 14:14 20.89437 60.60192 32895 ft 510 kts 129°
2026-04-25 14:14 20.84831 60.65979 32900 ft 510 kts 129°
2026-04-25 14:15 20.80231 60.71753 32899 ft 510 kts 129°
2026-04-25 14:15 20.75657 60.77488 32900 ft 510 kts 129°
2026-04-25 14:16 20.71053 60.83254 32903 ft 510 kts 129°
2026-04-25 14:16 20.66452 60.89010 32906 ft 509 kts 129°
2026-04-25 14:17 20.61923 60.94827 32902 ft 508 kts 124°
2026-04-25 14:17 20.57999 61.01091 32903 ft 508 kts 121°
2026-04-25 14:18 20.54225 61.07402 32906 ft 508 kts 121°
2026-04-25 14:18 20.50449 61.13761 32906 ft 508 kts 121°
2026-04-25 14:19 20.46661 61.20113 32906 ft 507 kts 121°
2026-04-25 14:19 20.42870 61.26446 32906 ft 506 kts 121°
2026-04-25 14:20 20.39101 61.32732 32908 ft 506 kts 121°
2026-04-25 14:20 20.35304 61.39057 32907 ft 507 kts 121°
2026-04-25 14:21 20.31506 61.45378 32908 ft 507 kts 121°
2026-04-25 14:21 20.27706 61.51694 32909 ft 506 kts 121°
2026-04-25 14:22 20.23927 61.57969 32906 ft 506 kts 120°
2026-04-25 14:22 20.20126 61.64275 32907 ft 506 kts 120°
2026-04-25 14:23 20.16327 61.70569 32909 ft 506 kts 120°
2026-04-25 14:23 20.12522 61.76868 32908 ft 506 kts 120°
2026-04-25 14:24 20.08717 61.83161 32909 ft 506 kts 120°
2026-04-25 14:24 20.04932 61.89412 32909 ft 506 kts 120°
2026-04-25 14:25 20.01120 61.95700 32907 ft 506 kts 120°
2026-04-25 14:25 19.97304 62.01991 32908 ft 506 kts 120°
2026-04-25 14:26 19.93489 62.08273 32909 ft 506 kts 120°
2026-04-25 14:26 19.89698 62.14508 32906 ft 506 kts 120°
2026-04-25 14:27 19.85880 62.20780 32909 ft 506 kts 120°
2026-04-25 14:27 19.82053 62.27061 32910 ft 506 kts 120°
2026-04-25 14:28 19.78225 62.33338 32911 ft 506 kts 120°
2026-04-25 14:28 19.74419 62.39571 32905 ft 506 kts 120°
2026-04-25 14:29 19.70589 62.45837 32907 ft 506 kts 120°
2026-04-25 14:29 19.66753 62.52107 32911 ft 506 kts 120°
2026-04-25 14:30 19.62914 62.58375 32907 ft 507 kts 121°
2026-04-25 14:30 19.57176 62.67730 32917 ft 507 kts 121°
2026-04-25 14:31 19.53333 62.73989 32911 ft 506 kts 121°
2026-04-25 14:31 19.49489 62.80241 32908 ft 506 kts 121°
2026-04-25 14:32 19.45642 62.86494 32911 ft 506 kts 121°
2026-04-25 14:32 19.41821 62.92697 32908 ft 506 kts 121°
2026-04-25 14:33 19.37966 62.98948 32908 ft 506 kts 121°
2026-04-25 14:33 19.34114 63.05188 32911 ft 506 kts 121°
2026-04-25 14:34 19.30260 63.11427 32908 ft 507 kts 121°
2026-04-25 14:34 19.26421 63.17634 32904 ft 508 kts 121°
2026-04-25 14:35 19.22549 63.23888 32908 ft 508 kts 121°
2026-04-25 14:35 19.18673 63.30141 32909 ft 508 kts 121°
2026-04-25 14:36 19.14792 63.36396 32903 ft 508 kts 121°
2026-04-25 14:36 19.10911 63.42645 32909 ft 508 kts 121°
2026-04-25 14:37 19.07054 63.48849 32905 ft 509 kts 121°
2026-04-25 14:37 19.03161 63.55105 32905 ft 509 kts 121°
2026-04-25 14:38 18.99264 63.61362 32910 ft 510 kts 121°
2026-04-25 14:38 18.95365 63.67620 32906 ft 510 kts 121°
2026-04-25 14:39 18.91494 63.73825 32908 ft 510 kts 121°
2026-04-25 14:39 18.87589 63.80078 32912 ft 510 kts 121°
2026-04-25 14:40 18.83683 63.86327 32909 ft 510 kts 121°
2026-04-25 14:40 18.79780 63.92563 32909 ft 508 kts 121°
2026-04-25 14:41 18.75914 63.98736 32906 ft 507 kts 121°
2026-04-25 14:41 18.72025 64.04941 32897 ft 507 kts 121°
2026-04-25 14:42 18.68787 64.10101 32911 ft 507 kts 121°
2026-04-25 14:42 18.64242 64.17338 32905 ft 507 kts 121°
2026-04-25 14:43 18.60373 64.23491 32911 ft 507 kts 121°
2026-04-25 14:43 18.56479 64.29678 32904 ft 506 kts 120°
2026-04-25 14:44 18.52588 64.35854 32902 ft 506 kts 120°
2026-04-25 14:44 18.48691 64.42034 32905 ft 506 kts 120°
2026-04-25 14:45 18.44796 64.48206 32906 ft 506 kts 120°
2026-04-25 14:45 18.40922 64.54337 32906 ft 506 kts 120°
2026-04-25 14:46 18.37023 64.60502 32907 ft 506 kts 120°
2026-04-25 14:46 18.33118 64.66671 32907 ft 506 kts 120°
2026-04-25 14:47 18.29871 64.71795 32906 ft 506 kts 120°
2026-04-25 14:47 18.25328 64.78959 32906 ft 506 kts 120°
2026-04-25 14:48 18.21416 64.85121 32909 ft 506 kts 120°
2026-04-25 14:48 18.17505 64.91275 32908 ft 506 kts 120°
2026-04-25 14:49 18.13587 64.97434 32908 ft 506 kts 121°
2026-04-25 14:49 18.09699 65.03542 32906 ft 506 kts 121°
2026-04-25 14:50 18.05780 65.09691 32906 ft 505 kts 121°
2026-04-25 14:50 18.01870 65.15819 32906 ft 505 kts 121°
2026-04-25 14:51 17.97984 65.21906 32908 ft 505 kts 121°
2026-04-25 14:51 17.94075 65.28025 32916 ft 505 kts 121°
2026-04-25 14:52 17.90163 65.34141 32909 ft 504 kts 121°
2026-04-25 14:52 17.86912 65.39218 32900 ft 504 kts 121°
2026-04-25 14:53 17.82346 65.46344 32900 ft 504 kts 121°
2026-04-25 14:53 17.78464 65.52396 32901 ft 502 kts 121°
2026-04-25 14:54 17.74559 65.58478 32902 ft 502 kts 121°
2026-04-25 14:54 17.70660 65.64546 32902 ft 502 kts 121°
2026-04-25 14:55 17.66756 65.70616 32903 ft 502 kts 121°
2026-04-25 14:55 17.62881 65.76636 32898 ft 502 kts 121°
2026-04-25 14:56 17.59016 65.82720 32894 ft 501 kts 120°
2026-04-25 14:56 17.55251 65.88866 32896 ft 501 kts 120°
2026-04-25 14:57 17.51492 65.95014 32898 ft 501 kts 120°
2026-04-25 14:57 17.47743 66.01105 32897 ft 501 kts 120°
2026-04-25 14:58 17.43959 66.07228 32897 ft 501 kts 120°
2026-04-25 14:58 17.40171 66.13349 32898 ft 501 kts 120°
2026-04-25 14:59 17.36378 66.19473 32897 ft 501 kts 120°
2026-04-25 14:59 17.32610 66.25552 32895 ft 501 kts 121°
2026-04-25 15:00 17.28816 66.31669 32897 ft 501 kts 121°
2026-04-25 15:00 17.25016 66.37788 32897 ft 502 kts 121°
2026-04-25 15:01 17.21215 66.43903 32893 ft 501 kts 121°
2026-04-25 15:01 17.17437 66.49977 32895 ft 501 kts 121°
2026-04-25 15:02 17.13628 66.56095 32894 ft 501 kts 121°
2026-04-25 15:02 17.09824 66.62200 32895 ft 502 kts 121°
2026-04-25 15:03 17.06011 66.68314 32892 ft 502 kts 121°
2026-04-25 15:03 17.02220 66.74388 32889 ft 502 kts 122°
2026-04-25 15:04 16.98402 66.80499 32894 ft 503 kts 122°
2026-04-25 15:04 16.94580 66.86610 32895 ft 502 kts 122°
2026-04-25 15:05 16.90758 66.92716 32890 ft 502 kts 123°
2026-04-25 15:06 16.85043 67.01835 32891 ft 503 kts 123°
2026-04-25 15:06 16.81215 67.07937 32892 ft 502 kts 123°
2026-04-25 15:07 16.77387 67.14034 32895 ft 503 kts 123°
2026-04-25 15:07 16.73552 67.20141 32895 ft 503 kts 124°
2026-04-25 15:08 16.69732 67.26214 32897 ft 505 kts 125°
2026-04-25 15:08 16.65868 67.32349 32895 ft 506 kts 125°
2026-04-25 15:09 16.62003 67.38484 32890 ft 506 kts 125°
2026-04-25 15:09 16.56200 67.47685 32892 ft 506 kts 125°
2026-04-25 15:10 16.52357 67.53772 32895 ft 506 kts 125°
2026-04-25 15:11 16.46544 67.62970 32890 ft 507 kts 127°
2026-04-25 15:11 16.42659 67.69109 32899 ft 507 kts 127°
2026-04-25 15:12 16.36858 67.78266 32906 ft 507 kts 127°
2026-04-25 15:12 16.34256 67.82370 32892 ft 507 kts 127°
2026-04-25 15:13 16.27131 67.93597 32889 ft 507 kts 127°
2026-04-25 15:14 16.23280 67.99692 32890 ft 508 kts 127°
2026-04-25 15:14 16.19422 68.05839 32897 ft 508 kts 128°
2026-04-25 15:15 16.15561 68.11986 32900 ft 507 kts 128°
2026-04-25 15:15 16.11701 68.18114 32899 ft 507 kts 128°
2026-04-25 15:16 16.07860 68.24206 32890 ft 507 kts 129°
2026-04-25 15:16 16.02057 68.33397 32893 ft 507 kts 129°
2026-04-25 15:17 15.96247 68.42587 32890 ft 507 kts 129°
2026-04-25 15:18 15.92375 68.48707 32891 ft 507 kts 129°
2026-04-25 15:18 15.86579 68.57858 32886 ft 508 kts 130°
2026-04-25 15:19 15.83981 68.61956 32895 ft 508 kts 130°
2026-04-25 15:19 15.78806 68.70112 32891 ft 508 kts 130°
2026-04-25 15:20 15.74912 68.76243 32880 ft 508 kts 130°
2026-04-25 15:20 15.71019 68.82368 32888 ft 508 kts 130°
2026-04-25 15:21 15.67154 68.88445 32880 ft 508 kts 130°
2026-04-25 15:21 15.63259 68.94562 32882 ft 508 kts 130°
2026-04-25 15:22 15.59372 69.00663 32886 ft 506 kts 130°
2026-04-25 15:22 15.55489 69.06753 32886 ft 506 kts 130°
2026-04-25 15:23 15.51632 69.12796 32880 ft 506 kts 130°
2026-04-25 15:23 15.47747 69.18878 32881 ft 506 kts 130°
2026-04-25 15:24 15.43859 69.24959 32883 ft 506 kts 130°
2026-04-25 15:24 15.40631 69.30005 32881 ft 506 kts 130°
2026-04-25 15:25 15.36112 69.37064 32883 ft 506 kts 130°
2026-04-25 15:25 15.32224 69.43132 32877 ft 505 kts 130°
2026-04-25 15:26 15.28343 69.49185 32877 ft 504 kts 130°
2026-04-25 15:26 15.24459 69.55236 32878 ft 505 kts 130°
2026-04-25 15:27 15.20598 69.61246 32876 ft 505 kts 130°
2026-04-25 15:28 15.14757 69.70331 32879 ft 505 kts 130°
2026-04-25 15:28 15.10862 69.76388 32877 ft 505 kts 130°
2026-04-25 15:29 15.06999 69.82465 32879 ft 506 kts 130°
2026-04-25 15:29 15.03178 69.88507 32878 ft 505 kts 130°
2026-04-25 15:30 14.99329 69.94578 32874 ft 504 kts 130°
2026-04-25 15:30 14.95477 70.00641 32876 ft 504 kts 130°
2026-04-25 15:31 14.91624 70.06697 32875 ft 504 kts 130°
2026-04-25 15:31 14.87792 70.12715 32876 ft 504 kts 130°
2026-04-25 15:32 14.83938 70.18763 32875 ft 504 kts 130°
2026-04-25 15:32 14.80076 70.24819 32875 ft 505 kts 130°
2026-04-25 15:33 14.74299 70.33871 32871 ft 505 kts 130°
2026-04-25 15:33 14.70436 70.39920 32887 ft 504 kts 130°
2026-04-25 15:34 14.66570 70.45967 32869 ft 504 kts 130°
2026-04-25 15:34 14.63985 70.50007 32868 ft 504 kts 130°
2026-04-25 15:35 14.56933 70.61021 32865 ft 504 kts 130°
2026-04-25 15:36 14.51133 70.70067 32863 ft 504 kts 130°
2026-04-25 15:36 14.47264 70.76095 32878 ft 504 kts 130°
2026-04-25 15:37 14.43393 70.82123 32879 ft 504 kts 130°
2026-04-25 15:37 14.39551 70.88102 32852 ft 504 kts 130°
2026-04-25 15:38 14.35681 70.94119 32873 ft 504 kts 130°
2026-04-25 15:38 14.31827 71.00166 32874 ft 504 kts 129°
2026-04-25 15:39 14.28007 71.06232 32868 ft 504 kts 129°
2026-04-25 15:39 14.24210 71.12257 32867 ft 504 kts 129°
2026-04-25 15:40 14.21652 71.16306 32868 ft 504 kts 129°
2026-04-25 15:40 14.16550 71.24366 32862 ft 504 kts 129°
2026-04-25 15:41 14.12721 71.30410 32868 ft 503 kts 129°
2026-04-25 15:41 14.08895 71.36444 32867 ft 503 kts 129°
2026-04-25 15:42 14.05094 71.42434 32867 ft 503 kts 129°
2026-04-25 15:42 14.01265 71.48464 32868 ft 503 kts 129°
2026-04-25 15:43 13.97436 71.54489 32868 ft 503 kts 129°
2026-04-25 15:43 13.93602 71.60518 32864 ft 503 kts 129°
2026-04-25 15:44 13.89796 71.66501 32865 ft 503 kts 129°
2026-04-25 15:44 13.85963 71.72521 32864 ft 503 kts 129°
2026-04-25 15:45 13.82133 71.78531 32868 ft 502 kts 129°
2026-04-25 15:45 13.79599 71.82506 32869 ft 502 kts 129°
2026-04-25 15:46 13.74474 71.90537 32867 ft 502 kts 129°
2026-04-25 15:46 13.70669 71.96494 32865 ft 502 kts 129°
2026-04-25 15:47 13.66603 72.02283 32864 ft 498 kts 134°
2026-04-25 15:47 13.62276 72.07829 32865 ft 497 kts 135°
2026-04-25 15:48 13.57907 72.13336 32865 ft 497 kts 135°
2026-04-25 15:48 13.53569 72.18801 32864 ft 496 kts 135°
2026-04-25 15:49 13.49219 72.24294 32865 ft 496 kts 135°
2026-04-25 15:49 13.44864 72.29793 32862 ft 496 kts 135°
2026-04-25 15:50 13.40509 72.35291 32864 ft 496 kts 135°
2026-04-25 15:50 13.36181 72.40753 32865 ft 496 kts 135°
2026-04-25 15:51 13.33264 72.44430 32865 ft 496 kts 135°
2026-04-25 15:51 13.27460 72.51743 32862 ft 496 kts 135°
2026-04-25 15:52 13.23099 72.57235 32858 ft 496 kts 134°
2026-04-25 15:52 13.18771 72.62681 32863 ft 496 kts 134°
2026-04-25 15:53 13.14410 72.68165 32859 ft 496 kts 134°
2026-04-25 15:53 13.10051 72.73643 32859 ft 496 kts 134°
2026-04-25 15:54 13.05690 72.79121 32863 ft 496 kts 134°
2026-04-25 15:54 13.01358 72.84558 32859 ft 496 kts 134°
2026-04-25 15:55 12.96995 72.90032 32860 ft 496 kts 134°
2026-04-25 15:55 12.92632 72.95502 32854 ft 496 kts 134°
2026-04-25 15:56 12.88265 73.00973 32859 ft 496 kts 134°
2026-04-25 15:56 12.83893 73.06447 32859 ft 496 kts 134°
2026-04-25 15:57 12.79549 73.11884 32856 ft 496 kts 134°
2026-04-25 15:57 12.75178 73.17351 32859 ft 496 kts 134°
2026-04-25 15:58 12.70807 73.22814 32859 ft 496 kts 134°
2026-04-25 15:58 12.66432 73.28278 32859 ft 496 kts 134°
2026-04-25 15:59 12.62089 73.33700 32859 ft 496 kts 134°
2026-04-25 15:59 12.57711 73.39162 32859 ft 496 kts 134°
2026-04-25 16:00 12.54784 73.42812 32864 ft 495 kts 134°
2026-04-25 16:00 12.48967 73.50062 32864 ft 495 kts 134°
2026-04-25 16:01 12.44594 73.55508 32862 ft 495 kts 134°
2026-04-25 16:01 12.40245 73.60921 32862 ft 495 kts 134°
2026-04-25 16:02 12.35871 73.66363 32863 ft 495 kts 134°
2026-04-25 16:02 12.31484 73.71815 32865 ft 497 kts 134°
2026-04-25 16:03 12.27087 73.77279 32860 ft 497 kts 134°
2026-04-25 16:03 12.22689 73.82740 32862 ft 497 kts 134°
2026-04-25 16:04 12.18325 73.88157 32862 ft 497 kts 134°
2026-04-25 16:04 12.13929 73.93609 32864 ft 497 kts 134°
2026-04-25 16:05 12.09533 73.99059 32864 ft 497 kts 134°
2026-04-25 16:06 12.02942 74.07224 32866 ft 496 kts 134°
2026-04-25 16:06 11.98577 74.12628 32867 ft 496 kts 134°
2026-04-25 16:07 11.94186 74.18060 32868 ft 496 kts 134°
2026-04-25 16:07 11.89802 74.23482 32870 ft 494 kts 134°
2026-04-25 16:08 11.85455 74.28854 32873 ft 494 kts 134°
2026-04-25 16:08 11.81075 74.34265 32873 ft 494 kts 134°
2026-04-25 16:09 11.76697 74.39668 32873 ft 494 kts 134°
2026-04-25 16:09 11.72322 74.45066 32873 ft 494 kts 134°
2026-04-25 16:10 11.67964 74.50441 32873 ft 494 kts 134°
2026-04-25 16:10 11.63584 74.55838 32872 ft 494 kts 134°
2026-04-25 16:11 11.59198 74.61241 32872 ft 494 kts 134°
2026-04-25 16:11 11.54813 74.66640 32878 ft 494 kts 134°
2026-04-25 16:12 11.50424 74.72041 32878 ft 494 kts 134°
2026-04-25 16:12 11.46066 74.77401 32881 ft 494 kts 134°
2026-04-25 16:13 11.41676 74.82796 32882 ft 494 kts 134°
2026-04-25 16:13 11.37286 74.88190 32881 ft 494 kts 134°
2026-04-25 16:14 11.32895 74.93584 32884 ft 494 kts 134°
2026-04-25 16:14 11.28534 74.98935 32884 ft 494 kts 134°
2026-04-25 16:15 11.24140 75.04323 32883 ft 494 kts 134°
2026-04-25 16:15 11.19750 75.09704 32884 ft 494 kts 134°
2026-04-25 16:16 11.15357 75.15086 32884 ft 494 kts 134°
2026-04-25 16:16 11.10966 75.20463 32883 ft 494 kts 134°
2026-04-25 16:17 11.06602 75.25804 32878 ft 494 kts 134°
2026-04-25 16:17 11.02207 75.31180 32879 ft 494 kts 134°
2026-04-25 16:18 10.97812 75.36554 32875 ft 494 kts 134°
2026-04-25 16:18 10.93419 75.41922 32883 ft 494 kts 133°
2026-04-25 16:19 10.89053 75.47255 32884 ft 494 kts 133°
2026-04-25 16:19 10.84657 75.52622 32884 ft 494 kts 133°
2026-04-25 16:20 10.78055 75.60678 32883 ft 494 kts 133°
2026-04-25 16:21 10.71485 75.68686 32884 ft 494 kts 133°
2026-04-25 16:21 10.67080 75.74054 32889 ft 494 kts 133°
2026-04-25 16:22 10.62678 75.79415 32887 ft 494 kts 133°
2026-04-25 16:22 10.58251 75.84801 32886 ft 498 kts 133°
2026-04-25 16:23 10.53800 75.90215 32888 ft 499 kts 133°
2026-04-25 16:23 10.49377 75.95594 32886 ft 499 kts 133°
2026-04-25 16:24 10.44921 76.01011 32888 ft 499 kts 133°
2026-04-25 16:24 10.40465 76.06424 32892 ft 499 kts 133°
2026-04-25 16:25 10.36007 76.11837 32883 ft 499 kts 133°
2026-04-25 16:25 10.31579 76.17210 32884 ft 500 kts 133°
2026-04-25 16:26 10.27114 76.22625 32884 ft 500 kts 132°
2026-04-25 16:26 10.22661 76.28026 32882 ft 497 kts 132°
2026-04-25 16:27 10.18258 76.33363 32884 ft 496 kts 132°
2026-04-25 16:27 10.13825 76.38734 32882 ft 496 kts 132°
2026-04-25 16:28 10.09376 76.44098 32881 ft 496 kts 133°
2026-04-25 16:28 10.04923 76.49445 32883 ft 496 kts 133°
2026-04-25 16:29 10.00501 76.54758 32885 ft 495 kts 133°
2026-04-25 16:29 9.96063 76.60092 32884 ft 495 kts 133°
2026-04-25 16:30 9.91624 76.65427 32905 ft 495 kts 133°
2026-04-25 16:30 9.87183 76.70761 32905 ft 495 kts 133°
2026-04-25 16:31 9.82774 76.76055 32896 ft 495 kts 133°
2026-04-25 16:31 9.78333 76.81383 32931 ft 495 kts 133°
2026-04-25 16:32 9.73887 76.86718 32922 ft 495 kts 133°
2026-04-25 16:32 9.69441 76.92050 32921 ft 496 kts 132°
2026-04-25 16:33 9.65022 76.97346 32942 ft 495 kts 132°
2026-04-25 16:33 9.60572 77.02676 32940 ft 495 kts 132°
2026-04-25 16:34 9.56122 77.08004 32932 ft 496 kts 132°
2026-04-25 16:34 9.51658 77.13345 32942 ft 496 kts 132°
2026-04-25 16:35 9.47227 77.18647 32944 ft 496 kts 132°
2026-04-25 16:35 9.43521 77.23080 32934 ft 496 kts 133°
2026-04-25 16:36 9.39058 77.28413 32939 ft 497 kts 133°
2026-04-25 16:36 9.33863 77.34621 32941 ft 497 kts 133°
2026-04-25 16:37 9.29391 77.39961 32920 ft 497 kts 133°
2026-04-25 16:37 9.25674 77.44398 32921 ft 497 kts 133°
2026-04-25 16:38 9.21204 77.49732 32922 ft 497 kts 133°
2026-04-25 16:38 9.16729 77.55069 32899 ft 497 kts 133°
2026-04-25 16:39 9.12250 77.60407 32894 ft 497 kts 133°
2026-04-25 16:39 9.07800 77.65711 32896 ft 498 kts 133°
2026-04-25 16:40 9.03314 77.71055 32893 ft 498 kts 133°
2026-04-25 16:40 8.98828 77.76396 32893 ft 498 kts 133°
2026-04-25 16:41 8.93618 77.82598 32888 ft 498 kts 133°
2026-04-25 16:41 8.87643 77.89705 32886 ft 498 kts 133°
2026-04-25 16:42 8.83158 77.95037 32889 ft 498 kts 133°
2026-04-25 16:42 8.78676 78.00363 32882 ft 496 kts 132°
2026-04-25 16:43 8.74238 78.05637 32884 ft 495 kts 132°
2026-04-25 16:43 8.69774 78.10938 32882 ft 495 kts 132°
2026-04-25 16:44 8.65306 78.16241 32884 ft 495 kts 132°
2026-04-25 16:44 8.60839 78.21542 32885 ft 495 kts 132°
2026-04-25 16:45 8.56403 78.26802 32897 ft 495 kts 132°
2026-04-25 16:45 8.51931 78.32104 32893 ft 495 kts 132°
2026-04-25 16:46 8.47467 78.37395 32897 ft 495 kts 132°
2026-04-25 16:46 8.43759 78.41788 32896 ft 495 kts 132°
2026-04-25 16:47 8.38539 78.47970 32896 ft 495 kts 132°
2026-04-25 16:47 8.34109 78.53214 32896 ft 495 kts 132°
2026-04-25 16:48 8.29634 78.58509 32898 ft 495 kts 132°
2026-04-25 16:48 8.25132 78.63757 32896 ft 494 kts 134°
2026-04-25 16:49 8.20517 78.68907 32897 ft 494 kts 134°
2026-04-25 16:49 8.15926 78.74014 32904 ft 495 kts 134°
2026-04-25 16:50 8.11313 78.79182 32903 ft 495 kts 133°
2026-04-25 16:50 8.06714 78.84349 32903 ft 495 kts 133°
2026-04-25 16:51 8.02112 78.89523 32907 ft 495 kts 133°
2026-04-25 16:51 7.98288 78.93819 32909 ft 495 kts 133°
2026-04-25 16:52 7.92937 78.99827 32910 ft 495 kts 133°
2026-04-25 16:52 7.88334 79.04992 32911 ft 495 kts 133°
2026-04-25 16:53 7.81431 79.12736 32909 ft 495 kts 133°
2026-04-25 16:54 7.76860 79.17862 32907 ft 495 kts 133°
2026-04-25 16:54 7.72258 79.23020 32909 ft 495 kts 133°
2026-04-25 16:55 7.67672 79.28191 32906 ft 495 kts 133°
2026-04-25 16:55 7.63121 79.33389 32907 ft 495 kts 133°
2026-04-25 16:56 7.58596 79.38558 32904 ft 495 kts 133°
2026-04-25 16:56 7.54037 79.43753 32896 ft 495 kts 133°
2026-04-25 16:57 7.49474 79.48946 32916 ft 495 kts 133°
2026-04-25 16:57 7.44903 79.54144 32901 ft 496 kts 133°
2026-04-25 16:58 7.40359 79.59312 32898 ft 496 kts 133°
2026-04-25 16:58 7.35788 79.64509 32902 ft 496 kts 133°
2026-04-25 16:59 7.31215 79.69706 32888 ft 496 kts 133°
2026-04-25 16:59 7.26638 79.74905 32891 ft 496 kts 133°
2026-04-25 17:00 7.22093 79.80066 32882 ft 496 kts 132°
2026-04-25 17:00 7.17505 79.85275 32880 ft 498 kts 132°
2026-04-25 17:01 7.12796 79.90381 32881 ft 498 kts 136°
2026-04-25 17:01 7.07736 79.95129 32886 ft 497 kts 138°
2026-04-25 17:02 7.02678 79.99818 32890 ft 498 kts 138°
2026-04-25 17:02 6.97634 80.04597 32893 ft 498 kts 137°
2026-04-25 17:03 6.92621 80.09405 32895 ft 498 kts 137°
2026-04-25 17:03 6.87617 80.14214 32901 ft 498 kts 137°
2026-04-25 17:04 6.82611 80.19021 32907 ft 498 kts 137°
2026-04-25 17:04 6.77621 80.23808 32912 ft 499 kts 137°
2026-04-25 17:05 6.72594 80.28627 32909 ft 499 kts 137°
2026-04-25 17:05 6.65058 80.35848 32926 ft 499 kts 137°
2026-04-25 17:06 6.60065 80.40633 32932 ft 499 kts 137°
2026-04-25 17:06 6.55039 80.45447 32923 ft 499 kts 137°
2026-04-25 17:07 6.50011 80.50261 32934 ft 499 kts 137°
2026-04-25 17:07 6.44983 80.55073 32929 ft 499 kts 137°
2026-04-25 17:08 6.39869 80.59726 32930 ft 499 kts 141°
2026-04-25 17:08 6.34426 80.64049 32930 ft 498 kts 142°
2026-04-25 17:09 6.28939 80.68308 32921 ft 498 kts 143°
2026-04-25 17:09 6.23449 80.72557 32922 ft 498 kts 142°
2026-04-25 17:10 6.18004 80.76779 32924 ft 498 kts 142°
2026-04-25 17:10 6.12520 80.81036 32915 ft 498 kts 142°
2026-04-25 17:11 6.07038 80.85292 32915 ft 498 kts 142°
2026-04-25 17:11 6.01619 80.89622 32912 ft 498 kts 140°
2026-04-25 17:12 5.96474 80.94196 32909 ft 495 kts 138°
2026-04-25 17:12 5.91345 80.98813 32910 ft 495 kts 139°
2026-04-25 17:13 5.87058 81.02616 32912 ft 495 kts 139°
2026-04-25 17:13 5.81002 81.07933 32912 ft 494 kts 139°
2026-04-25 17:14 5.75820 81.12470 32913 ft 494 kts 139°
2026-04-25 17:14 5.70668 81.16981 32907 ft 494 kts 139°
2026-04-25 17:15 5.65483 81.21523 32907 ft 495 kts 139°
2026-04-25 17:15 5.60300 81.26063 32910 ft 494 kts 139°
2026-04-25 17:16 5.55161 81.30562 32906 ft 494 kts 139°
2026-04-25 17:16 5.49977 81.35101 32904 ft 495 kts 139°
2026-04-25 17:17 5.44788 81.39642 32907 ft 495 kts 139°
2026-04-25 17:17 5.39601 81.44181 32904 ft 495 kts 139°
2026-04-25 17:18 5.34449 81.48688 32901 ft 495 kts 139°
2026-04-25 17:18 5.29259 81.53226 32904 ft 495 kts 139°
2026-04-25 17:19 5.24077 81.57757 32907 ft 494 kts 139°
2026-04-25 17:19 5.18890 81.62292 32905 ft 494 kts 139°
2026-04-25 17:20 5.13707 81.66822 32901 ft 494 kts 139°
2026-04-25 17:20 5.08551 81.71327 32902 ft 495 kts 139°
2026-04-25 17:21 5.03353 81.75868 32903 ft 496 kts 139°
2026-04-25 17:21 4.98157 81.80406 32902 ft 495 kts 139°
2026-04-25 17:22 4.93834 81.84181 32904 ft 495 kts 139°
2026-04-25 17:22 4.87795 81.89453 32903 ft 495 kts 139°
2026-04-25 17:23 4.82600 81.93987 32899 ft 495 kts 139°
2026-04-25 17:23 4.77403 81.98522 32899 ft 495 kts 139°
2026-04-25 17:24 4.72206 82.03056 32900 ft 495 kts 139°
2026-04-25 17:24 4.67047 82.07556 32901 ft 495 kts 139°
2026-04-25 17:25 4.61850 82.12089 32899 ft 495 kts 139°
2026-04-25 17:25 4.56654 82.16620 32899 ft 495 kts 139°
2026-04-25 17:26 4.51460 82.21147 32896 ft 495 kts 139°
2026-04-25 17:26 4.46298 82.25646 32896 ft 495 kts 139°
2026-04-25 17:27 4.41104 82.30172 32899 ft 495 kts 139°
2026-04-25 17:27 4.36789 82.33932 32896 ft 495 kts 139°
2026-04-25 17:28 4.30713 82.39224 32903 ft 495 kts 139°
2026-04-25 17:28 4.25550 82.43721 32899 ft 496 kts 139°
2026-04-25 17:29 4.20344 82.48254 32896 ft 496 kts 139°
2026-04-25 17:29 4.15138 82.52786 32896 ft 496 kts 139°
2026-04-25 17:30 4.09930 82.57320 32898 ft 496 kts 139°
2026-04-25 17:30 4.04724 82.61851 32900 ft 496 kts 139°
2026-04-25 17:31 3.99559 82.66345 32896 ft 496 kts 139°
2026-04-25 17:31 3.94350 82.70876 32898 ft 496 kts 139°
2026-04-25 17:32 3.89144 82.75405 32896 ft 496 kts 139°
2026-04-25 17:32 3.83937 82.79933 32893 ft 496 kts 138°
2026-04-25 17:33 3.78764 82.84431 32903 ft 496 kts 138°
2026-04-25 17:33 3.73559 82.88957 32898 ft 495 kts 138°
2026-04-25 17:34 3.68354 82.93481 32898 ft 495 kts 138°
2026-04-25 17:34 3.63149 82.98005 32895 ft 495 kts 138°
2026-04-25 17:35 3.57982 83.02496 32896 ft 495 kts 138°
2026-04-25 17:35 3.52720 83.06946 32895 ft 495 kts 139°
2026-04-25 17:36 3.47411 83.11346 32896 ft 495 kts 139°
2026-04-25 17:36 3.42109 83.15754 32896 ft 495 kts 139°
2026-04-25 17:37 3.36849 83.20146 32896 ft 496 kts 139°
2026-04-25 17:37 3.31564 83.24567 32896 ft 496 kts 139°
2026-04-25 17:38 3.27164 83.28247 32893 ft 495 kts 139°
2026-04-25 17:38 3.20983 83.33415 32893 ft 495 kts 139°
2026-04-25 17:39 3.15693 83.37837 32893 ft 495 kts 139°
2026-04-25 17:39 3.10404 83.42257 32896 ft 495 kts 139°
2026-04-25 17:40 3.05146 83.46651 32892 ft 495 kts 139°
2026-04-25 17:40 2.99860 83.51067 32887 ft 495 kts 139°
2026-04-25 17:41 2.94583 83.55475 32890 ft 493 kts 139°
2026-04-25 17:41 2.89323 83.59869 32889 ft 493 kts 139°
2026-04-25 17:42 2.84098 83.64233 32892 ft 492 kts 139°
2026-04-25 17:42 2.78839 83.68625 32893 ft 492 kts 139°
2026-04-25 17:43 2.73587 83.73010 32890 ft 492 kts 139°
2026-04-25 17:43 2.68318 83.77409 32889 ft 492 kts 139°
2026-04-25 17:44 2.63098 83.81767 32890 ft 492 kts 139°
2026-04-25 17:44 2.57845 83.86152 32892 ft 492 kts 139°
2026-04-25 17:45 2.53481 83.89794 32892 ft 492 kts 139°
2026-04-25 17:45 2.47336 83.94922 32890 ft 493 kts 139°
2026-04-25 17:46 2.42064 83.99321 32889 ft 493 kts 139°
2026-04-25 17:46 2.36829 84.03689 32890 ft 493 kts 139°
2026-04-25 17:47 2.31558 84.08087 32890 ft 493 kts 139°
2026-04-25 17:47 2.26288 84.12483 32887 ft 493 kts 139°
2026-04-25 17:48 2.18436 84.19031 32890 ft 492 kts 139°
2026-04-25 17:49 2.13184 84.23411 32887 ft 492 kts 139°
2026-04-25 17:49 2.07929 84.27794 32887 ft 492 kts 139°
2026-04-25 17:50 2.02670 84.32180 32890 ft 494 kts 139°
2026-04-25 17:50 1.97386 84.36585 32890 ft 495 kts 139°
2026-04-25 17:51 1.92128 84.40969 32892 ft 495 kts 139°
2026-04-25 17:51 1.86842 84.45375 32889 ft 495 kts 139°
2026-04-25 17:52 1.81555 84.49782 32889 ft 495 kts 139°
2026-04-25 17:52 1.76271 84.54186 32887 ft 495 kts 139°
2026-04-25 17:53 1.71021 84.58562 32886 ft 495 kts 139°
2026-04-25 17:53 1.65740 84.62962 32887 ft 494 kts 139°
2026-04-25 17:54 1.60454 84.67367 32887 ft 494 kts 139°
2026-04-25 17:54 1.55171 84.71769 32887 ft 494 kts 139°
2026-04-25 17:55 1.49923 84.76142 32884 ft 494 kts 139°
2026-04-25 17:55 1.44643 84.80541 32883 ft 494 kts 139°
2026-04-25 17:56 1.39364 84.84939 32886 ft 494 kts 139°
2026-04-25 17:56 1.34082 84.89338 32886 ft 494 kts 139°
2026-04-25 17:57 1.28800 84.93738 32887 ft 494 kts 139°
2026-04-25 17:57 1.23560 84.98102 32887 ft 494 kts 139°
2026-04-25 17:58 1.18280 85.02500 32885 ft 494 kts 139°
2026-04-25 17:58 1.13001 85.06897 32884 ft 494 kts 139°
2026-04-25 17:59 1.07716 85.11299 32884 ft 494 kts 139°
2026-04-25 17:59 1.02495 85.15697 32885 ft 494 kts 138°
2026-04-25 18:00 0.97418 85.20323 32884 ft 494 kts 136°
2026-04-25 18:00 0.92380 85.24988 32886 ft 494 kts 136°
2026-04-25 18:01 0.87318 85.29626 32886 ft 494 kts 137°
2026-04-25 18:01 0.82239 85.34245 32883 ft 494 kts 137°
2026-04-25 18:02 0.77181 85.38834 32884 ft 494 kts 137°
2026-04-25 18:02 0.72099 85.43446 32887 ft 493 kts 137°
2026-04-25 18:03 0.67021 85.48057 32884 ft 493 kts 137°
2026-04-25 18:03 0.61941 85.52670 32884 ft 493 kts 137°
2026-04-25 18:04 0.56897 85.57251 32885 ft 493 kts 137°
2026-04-25 18:04 0.51817 85.61863 32884 ft 493 kts 137°
2026-04-25 18:05 0.46739 85.66474 32884 ft 493 kts 137°
2026-04-25 18:05 0.41662 85.71083 32883 ft 493 kts 137°
2026-04-25 18:06 0.36617 85.75664 32881 ft 493 kts 137°
2026-04-25 18:06 0.31541 85.80272 32881 ft 493 kts 137°
2026-04-25 18:07 0.26463 85.84883 32882 ft 493 kts 137°
2026-04-25 18:07 0.21385 85.89494 32881 ft 493 kts 137°
2026-04-25 18:08 0.16342 85.94072 32882 ft 493 kts 137°
2026-04-25 18:08 0.11265 85.98682 32881 ft 493 kts 137°
2026-04-25 18:09 0.06189 86.03290 32881 ft 493 kts 137°
2026-04-25 18:09 0.01112 86.07899 32883 ft 493 kts 137°
2026-04-25 18:10 -0.03932 86.12479 32881 ft 493 kts 137°
2026-04-25 18:10 -0.09004 86.17084 32881 ft 493 kts 137°
2026-04-25 18:11 -0.14077 86.21690 32878 ft 493 kts 137°
2026-04-25 18:11 -0.19156 86.26301 32878 ft 493 kts 137°
2026-04-25 18:12 -0.24197 86.30878 32876 ft 493 kts 137°
2026-04-25 18:12 -0.29274 86.35487 32875 ft 493 kts 137°
2026-04-25 18:13 -0.34364 86.40076 32877 ft 493 kts 138°
2026-04-25 18:13 -0.39541 86.44584 32876 ft 493 kts 138°
2026-04-25 18:14 -0.47258 86.51283 32876 ft 492 kts 138°
2026-04-25 18:14 -0.52406 86.55781 32875 ft 492 kts 138°
2026-04-25 18:15 -0.57550 86.60282 32875 ft 492 kts 138°
2026-04-25 18:15 -0.62696 86.64786 32872 ft 492 kts 138°
2026-04-25 18:16 -0.67806 86.69258 32873 ft 492 kts 138°
2026-04-25 18:17 -0.75526 86.76012 32873 ft 492 kts 138°
2026-04-25 18:17 -0.80668 86.80512 32875 ft 491 kts 138°
2026-04-25 18:18 -0.85766 86.84972 32873 ft 491 kts 138°
2026-04-25 18:18 -0.90909 86.89473 32872 ft 491 kts 138°
2026-04-25 18:19 -0.96047 86.93969 32874 ft 491 kts 138°
2026-04-25 18:19 -1.01186 86.98466 32873 ft 491 kts 138°
2026-04-25 18:20 -1.06324 87.02963 32874 ft 491 kts 138°
2026-04-25 18:20 -1.11429 87.07431 32873 ft 491 kts 138°
2026-04-25 18:21 -1.16568 87.11929 32872 ft 491 kts 138°
2026-04-25 18:21 -1.21703 87.16426 32873 ft 491 kts 138°
2026-04-25 18:22 -1.26802 87.20895 32872 ft 491 kts 138°
2026-04-25 18:22 -1.31939 87.25387 32873 ft 491 kts 138°
2026-04-25 18:23 -1.37076 87.29881 32874 ft 491 kts 138°
2026-04-25 18:23 -1.42214 87.34378 32873 ft 491 kts 138°
2026-04-25 18:24 -1.47343 87.38869 32873 ft 490 kts 138°
2026-04-25 18:24 -1.52438 87.43330 32873 ft 490 kts 138°
2026-04-25 18:25 -1.57564 87.47818 32874 ft 489 kts 138°
2026-04-25 18:25 -1.62676 87.52295 32872 ft 489 kts 138°
2026-04-25 18:26 -1.67781 87.56765 32874 ft 489 kts 138°
2026-04-25 18:26 -1.72867 87.61220 32870 ft 488 kts 138°
2026-04-25 18:27 -1.77975 87.65694 32869 ft 488 kts 138°
2026-04-25 18:27 -1.83084 87.70169 32867 ft 488 kts 138°
2026-04-25 18:28 -1.88199 87.74650 32871 ft 489 kts 138°
2026-04-25 18:28 -1.93310 87.79128 32871 ft 489 kts 137°
2026-04-25 18:29 -2.00939 87.85812 32871 ft 488 kts 138°
2026-04-25 18:30 -2.11265 87.94629 32873 ft 488 kts 139°
2026-04-25 18:30 -2.16405 87.99002 32874 ft 488 kts 139°
2026-04-25 18:31 -2.21567 88.03409 32873 ft 488 kts 138°
2026-04-25 18:31 -2.26728 88.07819 32873 ft 488 kts 138°
2026-04-25 18:32 -2.31890 88.12230 32873 ft 488 kts 138°
2026-04-25 18:32 -2.37023 88.16616 32874 ft 488 kts 138°
2026-04-25 18:33 -2.42185 88.21028 32874 ft 489 kts 138°
2026-04-25 18:33 -2.47353 88.25445 32872 ft 489 kts 138°
2026-04-25 18:34 -2.52520 88.29861 32870 ft 488 kts 138°
2026-04-25 18:34 -2.57686 88.34278 32870 ft 488 kts 138°
2026-04-25 18:35 -2.62813 88.38661 32870 ft 488 kts 138°
2026-04-25 18:35 -2.67982 88.43081 32869 ft 488 kts 138°
2026-04-25 18:36 -2.73147 88.47498 32873 ft 489 kts 138°
2026-04-25 18:36 -2.78318 88.51921 32873 ft 489 kts 138°
2026-04-25 18:37 -2.83455 88.56315 32872 ft 489 kts 138°
2026-04-25 18:37 -2.88621 88.60736 32873 ft 489 kts 138°
2026-04-25 18:38 -2.93768 88.65180 32873 ft 489 kts 138°
2026-04-25 18:38 -2.98909 88.69633 32873 ft 489 kts 138°
2026-04-25 18:39 -3.04016 88.74053 32873 ft 489 kts 138°
2026-04-25 18:39 -3.09165 88.78506 32874 ft 489 kts 138°
2026-04-25 18:40 -3.14319 88.82963 32875 ft 490 kts 138°
2026-04-25 18:40 -3.19474 88.87420 32875 ft 490 kts 138°
2026-04-25 18:41 -3.24599 88.91854 32875 ft 490 kts 138°
2026-04-25 18:41 -3.29761 88.96319 32876 ft 490 kts 138°
2026-04-25 18:42 -3.33213 88.99305 32874 ft 490 kts 138°
2026-04-25 18:42 -3.40075 89.05243 32873 ft 490 kts 138°
2026-04-25 18:43 -3.45202 89.09679 32873 ft 490 kts 138°
2026-04-25 18:43 -3.50356 89.14140 32873 ft 490 kts 138°
2026-04-25 18:44 -3.55516 89.18608 32873 ft 490 kts 138°
2026-04-25 18:44 -3.60672 89.23071 32873 ft 490 kts 138°
2026-04-25 18:45 -3.65833 89.27541 32872 ft 491 kts 138°
2026-04-25 18:45 -3.70961 89.31983 32873 ft 491 kts 138°
2026-04-25 18:46 -3.76124 89.36455 32873 ft 491 kts 138°
2026-04-25 18:46 -3.81289 89.40929 32874 ft 491 kts 138°
2026-04-25 18:47 -3.86453 89.45404 32873 ft 491 kts 138°
2026-04-25 18:47 -3.91587 89.49854 32873 ft 491 kts 138°
2026-04-25 18:48 -3.96754 89.54333 32873 ft 491 kts 138°
2026-04-25 18:48 -4.01921 89.58812 32873 ft 491 kts 138°
2026-04-25 18:49 -4.07049 89.63258 32872 ft 491 kts 138°
2026-04-25 18:49 -4.12218 89.67742 32873 ft 491 kts 138°
2026-04-25 18:50 -4.17383 89.72222 32874 ft 491 kts 138°
2026-04-25 18:50 -4.22544 89.76699 32872 ft 490 kts 138°
2026-04-25 18:51 -4.25953 89.79657 32873 ft 489 kts 138°
2026-04-25 18:51 -4.32796 89.85596 32873 ft 489 kts 138°
2026-04-25 18:52 -4.37932 89.90054 32872 ft 489 kts 138°
2026-04-25 18:52 -4.43074 89.94518 32873 ft 489 kts 138°
2026-04-25 18:53 -4.48177 89.98950 32876 ft 489 kts 138°
2026-04-25 18:53 -4.53321 90.03418 32873 ft 490 kts 139°
2026-04-25 18:54 -4.61054 90.10135 32873 ft 489 kts 139°
2026-04-25 18:55 -4.66154 90.14567 32870 ft 488 kts 139°
2026-04-25 18:55 -4.71287 90.19029 32871 ft 488 kts 139°
2026-04-25 18:56 -4.76416 90.23488 32870 ft 488 kts 138°
2026-04-25 18:56 -4.81551 90.27952 32870 ft 488 kts 138°
2026-04-25 18:57 -4.86645 90.32382 32877 ft 488 kts 138°
2026-04-25 18:57 -4.91776 90.36846 32875 ft 488 kts 138°
2026-04-25 18:58 -4.96911 90.41314 32876 ft 490 kts 139°
2026-04-25 18:58 -5.04655 90.48054 32875 ft 492 kts 139°
2026-04-25 18:59 -5.14952 90.57018 32876 ft 492 kts 139°
2026-04-25 19:00 -5.22694 90.63762 32882 ft 491 kts 139°
2026-04-25 19:01 -5.30433 90.70504 32878 ft 491 kts 139°
2026-04-25 19:01 -5.35557 90.74975 32877 ft 491 kts 139°
2026-04-25 19:02 -5.43256 90.81776 32878 ft 492 kts 138°
2026-04-25 19:03 -5.49218 90.87051 32878 ft 492 kts 138°
2026-04-25 19:03 -5.56057 90.93095 32881 ft 492 kts 138°
2026-04-25 19:04 -5.63758 90.99900 32881 ft 492 kts 138°
2026-04-25 19:05 -5.74031 91.08982 32881 ft 493 kts 138°
2026-04-25 19:06 -5.79140 91.13501 32882 ft 493 kts 138°
2026-04-25 19:06 -5.86855 91.20326 32881 ft 492 kts 138°
2026-04-25 19:07 -5.94556 91.27142 32875 ft 492 kts 138°
2026-04-25 19:08 -6.02223 91.33930 32875 ft 492 kts 138°
2026-04-25 19:09 -6.10786 91.41515 32878 ft 492 kts 138°
2026-04-25 19:10 -6.20168 91.49829 32877 ft 491 kts 138°
2026-04-25 19:10 -6.25256 91.54339 32879 ft 491 kts 137°
2026-04-25 19:11 -6.30387 91.58889 32880 ft 492 kts 137°
2026-04-25 19:11 -6.35519 91.63441 32878 ft 492 kts 137°
2026-04-25 19:12 -6.40653 91.67997 32875 ft 492 kts 137°
2026-04-25 19:12 -6.45745 91.72516 32875 ft 492 kts 137°
2026-04-25 19:13 -6.50873 91.77069 32876 ft 491 kts 138°
2026-04-25 19:13 -6.55996 91.81617 32878 ft 491 kts 138°
2026-04-25 19:14 -6.61115 91.86164 32879 ft 491 kts 138°
2026-04-25 19:14 -6.66198 91.90680 32879 ft 491 kts 138°
2026-04-25 19:15 -6.71328 91.95238 32879 ft 494 kts 137°
2026-04-25 19:15 -6.76479 91.99819 32879 ft 494 kts 137°
2026-04-25 19:16 -6.81629 92.04399 32879 ft 494 kts 137°
2026-04-25 19:16 -6.86744 92.08950 32877 ft 492 kts 138°
2026-04-25 19:17 -6.91855 92.13497 32877 ft 489 kts 138°
2026-04-25 19:17 -6.96948 92.18030 32875 ft 489 kts 138°
2026-04-25 19:18 -7.02044 92.22566 32874 ft 489 kts 138°
2026-04-25 19:18 -7.07100 92.27070 32876 ft 489 kts 138°
2026-04-25 19:19 -7.12197 92.31611 32877 ft 490 kts 137°
2026-04-25 19:19 -7.17318 92.36175 32878 ft 492 kts 137°
2026-04-25 19:20 -7.22443 92.40744 32879 ft 492 kts 137°
2026-04-25 19:20 -7.27539 92.45288 32878 ft 492 kts 137°
2026-04-25 19:21 -7.32668 92.49863 32878 ft 492 kts 137°
2026-04-25 19:21 -7.40357 92.56724 32878 ft 492 kts 137°
2026-04-25 19:22 -7.44615 92.60525 32875 ft 492 kts 137°
2026-04-25 19:23 -7.53134 92.68133 32876 ft 492 kts 138°
2026-04-25 19:23 -7.59957 92.74230 32873 ft 492 kts 138°
2026-04-25 19:24 -7.65076 92.78805 32876 ft 491 kts 138°
2026-04-25 19:25 -7.76122 92.88683 32876 ft 491 kts 138°
2026-04-25 19:25 -7.80368 92.92482 32876 ft 491 kts 138°
2026-04-25 19:26 -7.85476 92.97054 32875 ft 491 kts 138°
2026-04-25 19:26 -7.91413 93.02370 32875 ft 491 kts 138°
2026-04-25 19:27 -7.94826 93.05427 32876 ft 491 kts 138°
2026-04-25 19:27 -8.01624 93.11518 32875 ft 491 kts 138°
2026-04-25 19:28 -8.05869 93.15322 32873 ft 491 kts 138°
2026-04-25 19:28 -8.11799 93.20639 32872 ft 491 kts 138°
2026-04-25 19:29 -8.16049 93.24451 32874 ft 492 kts 138°
2026-04-25 19:29 -8.21153 93.29032 32873 ft 491 kts 138°
2026-04-25 19:30 -8.26253 93.33610 32876 ft 490 kts 138°
2026-04-25 19:30 -8.32173 93.38924 32875 ft 490 kts 138°
2026-04-25 19:31 -8.36406 93.42727 32876 ft 491 kts 139°
2026-04-25 19:31 -8.41531 93.47331 32875 ft 494 kts 139°
2026-04-25 19:32 -8.46663 93.51944 32875 ft 494 kts 139°
2026-04-25 19:32 -8.50932 93.55784 32875 ft 494 kts 139°
2026-04-25 19:33 -8.56883 93.61137 32872 ft 493 kts 139°
2026-04-25 19:33 -8.61997 93.65738 32872 ft 493 kts 139°
2026-04-25 19:34 -8.67123 93.70351 32872 ft 494 kts 139°
2026-04-25 19:34 -8.72256 93.74975 32872 ft 495 kts 139°
2026-04-25 19:35 -8.77413 93.79620 32872 ft 497 kts 139°
2026-04-25 19:35 -8.82539 93.84240 32872 ft 498 kts 139°
2026-04-25 19:36 -8.87710 93.88902 32875 ft 498 kts 139°
2026-04-25 19:36 -8.92881 93.93566 32875 ft 498 kts 139°
2026-04-25 19:37 -8.98051 93.98231 32875 ft 498 kts 139°
2026-04-25 19:37 -9.03134 94.02920 32875 ft 498 kts 137°
2026-04-25 19:38 -9.08047 94.07863 32876 ft 498 kts 135°
2026-04-25 19:38 -9.12940 94.12843 32875 ft 499 kts 136°
2026-04-25 19:39 -9.17866 94.17796 32873 ft 499 kts 136°
2026-04-25 19:39 -9.22776 94.22697 32873 ft 500 kts 136°
2026-04-25 19:40 -9.27732 94.27638 32872 ft 501 kts 136°
2026-04-25 19:40 -9.32695 94.32590 32872 ft 501 kts 136°
2026-04-25 19:41 -9.37652 94.37539 32873 ft 500 kts 136°
2026-04-25 19:41 -9.41769 94.41653 32873 ft 501 kts 136°
2026-04-25 19:42 -9.47536 94.47417 32873 ft 501 kts 136°
2026-04-25 19:42 -9.52498 94.52379 32873 ft 501 kts 136°
2026-04-25 19:43 -9.57462 94.57344 32873 ft 501 kts 136°
2026-04-25 19:43 -9.62421 94.62307 32873 ft 502 kts 136°
2026-04-25 19:44 -9.67370 94.67263 32870 ft 503 kts 136°
2026-04-25 19:44 -9.72343 94.72244 32870 ft 503 kts 136°
2026-04-25 19:45 -9.77318 94.77230 32870 ft 503 kts 136°
2026-04-25 19:45 -9.82287 94.82213 32873 ft 503 kts 137°
2026-04-25 19:46 -9.87229 94.87170 32873 ft 503 kts 137°
2026-04-25 19:46 -9.92204 94.92162 32873 ft 503 kts 137°
2026-04-25 19:47 -9.97182 94.97159 32872 ft 504 kts 137°
2026-04-25 19:47 -10.02148 95.02186 32873 ft 505 kts 135°
2026-04-25 19:48 -10.06909 95.07376 32873 ft 506 kts 134°
2026-04-25 19:48 -10.11650 95.12649 32873 ft 506 kts 134°
2026-04-25 19:49 -10.15608 95.17013 32873 ft 505 kts 134°
2026-04-25 19:49 -10.21198 95.23129 32873 ft 505 kts 135°
2026-04-25 19:50 -10.28340 95.30928 32873 ft 505 kts 135°
2026-04-25 19:51 -10.33124 95.36157 32873 ft 506 kts 134°
2026-04-25 19:51 -10.37923 95.41407 32873 ft 507 kts 134°
2026-04-25 19:52 -10.42720 95.46658 32873 ft 507 kts 134°
2026-04-25 19:52 -10.47483 95.51875 32873 ft 507 kts 134°
2026-04-25 19:53 -10.52283 95.57133 32873 ft 507 kts 134°
2026-04-25 19:53 -10.57078 95.62390 32873 ft 508 kts 135°
2026-04-25 19:54 -10.61880 95.67655 32873 ft 508 kts 135°
2026-04-25 19:54 -10.66645 95.72883 32872 ft 508 kts 135°
2026-04-25 19:55 -10.71455 95.78163 32872 ft 509 kts 135°
2026-04-25 19:55 -10.76267 95.83448 32870 ft 509 kts 135°
2026-04-25 19:56 -10.81081 95.88738 32870 ft 509 kts 135°
2026-04-25 19:56 -10.85859 95.93992 32870 ft 509 kts 135°
2026-04-25 19:57 -10.90667 95.99281 32868 ft 509 kts 135°
2026-04-25 19:57 -10.95473 96.04570 32870 ft 509 kts 135°
2026-04-25 19:58 -11.00279 96.09862 32871 ft 509 kts 135°
2026-04-25 19:58 -11.05057 96.15125 32870 ft 510 kts 135°
2026-04-25 19:59 -11.09879 96.20441 32870 ft 511 kts 135°
2026-04-25 19:59 -11.14693 96.25750 32870 ft 510 kts 135°
2026-04-25 20:00 -11.19511 96.31066 32870 ft 510 kts 135°
2026-04-25 20:00 -11.24291 96.36344 32878 ft 510 kts 135°
2026-04-25 20:01 -11.31527 96.44338 32873 ft 512 kts 135°
2026-04-25 20:01 -11.36354 96.49673 32873 ft 513 kts 135°
2026-04-25 20:02 -11.41194 96.55027 32876 ft 514 kts 135°
2026-04-25 20:02 -11.46001 96.60346 32875 ft 514 kts 135°
2026-04-25 20:03 -11.50843 96.65707 32875 ft 513 kts 135°
2026-04-25 20:03 -11.55678 96.71064 32876 ft 513 kts 135°
2026-04-25 20:04 -11.60511 96.76423 32882 ft 513 kts 135°
2026-04-25 20:04 -11.65322 96.81758 32875 ft 515 kts 135°
2026-04-25 20:05 -11.70172 96.87139 32878 ft 516 kts 135°
2026-04-25 20:05 -11.75031 96.92534 32878 ft 516 kts 135°
2026-04-25 20:06 -11.79887 96.97929 32872 ft 516 kts 135°
2026-04-25 20:06 -11.84713 97.03294 32879 ft 516 kts 135°
2026-04-25 20:07 -11.89567 97.08692 32875 ft 516 kts 135°
2026-04-25 20:07 -11.94420 97.14093 32879 ft 516 kts 135°
2026-04-25 20:08 -11.99277 97.19501 32877 ft 518 kts 135°
2026-04-25 20:08 -12.04114 97.24890 32876 ft 518 kts 135°
2026-04-25 20:09 -12.08986 97.30321 32876 ft 518 kts 135°
2026-04-25 20:09 -12.13854 97.35751 32879 ft 518 kts 135°
2026-04-25 20:10 -12.18724 97.41186 32881 ft 518 kts 135°
2026-04-25 20:10 -12.23587 97.46617 32881 ft 518 kts 135°
2026-04-25 20:11 -12.28418 97.52015 32881 ft 518 kts 135°
2026-04-25 20:11 -12.33286 97.57457 32881 ft 519 kts 135°
2026-04-25 20:12 -12.38169 97.62919 32878 ft 521 kts 135°
2026-04-25 20:12 -12.42236 97.67471 32878 ft 521 kts 135°
2026-04-25 20:13 -12.47920 97.73837 32879 ft 521 kts 135°
2026-04-25 20:13 -12.52808 97.79316 32878 ft 521 kts 135°
2026-04-25 20:14 -12.57698 97.84798 32878 ft 521 kts 135°
2026-04-25 20:14 -12.62583 97.90280 32878 ft 521 kts 135°
2026-04-25 20:15 -12.67433 97.95726 32883 ft 522 kts 135°
2026-04-25 20:15 -12.72339 98.01236 32879 ft 524 kts 135°
2026-04-25 20:16 -12.77253 98.06760 32875 ft 525 kts 135°
2026-04-25 20:16 -12.82168 98.12288 32878 ft 524 kts 135°
2026-04-25 20:17 -12.87081 98.17819 32879 ft 524 kts 135°
2026-04-25 20:17 -12.91957 98.23310 32874 ft 524 kts 135°
2026-04-25 20:18 -12.96864 98.28840 32878 ft 524 kts 135°
2026-04-25 20:18 -13.01771 98.34373 32881 ft 525 kts 135°
2026-04-25 20:19 -13.06663 98.39892 32874 ft 527 kts 135°
2026-04-25 20:19 -13.11597 98.45463 32876 ft 528 kts 135°
2026-04-25 20:20 -13.16531 98.51038 32876 ft 527 kts 135°
2026-04-25 20:20 -13.21459 98.56609 32876 ft 527 kts 135°
2026-04-25 20:21 -13.26389 98.62187 32876 ft 527 kts 135°
2026-04-25 20:21 -13.31286 98.67731 32875 ft 527 kts 135°
2026-04-25 20:22 -13.35413 98.72405 32881 ft 528 kts 135°
2026-04-25 20:22 -13.41157 98.78915 32874 ft 530 kts 135°
2026-04-25 20:23 -13.46107 98.84529 32875 ft 530 kts 135°
2026-04-25 20:23 -13.51060 98.90152 32877 ft 530 kts 135°
2026-04-25 20:24 -13.55974 98.95733 32861 ft 530 kts 135°
2026-04-25 20:24 -13.60878 99.01403 32878 ft 531 kts 133°
2026-04-25 20:25 -13.65578 99.07267 32877 ft 532 kts 132°
2026-04-25 20:25 -13.70248 99.13160 32883 ft 532 kts 133°
2026-04-25 20:26 -13.74935 99.19010 32866 ft 534 kts 133°
2026-04-25 20:26 -13.79677 99.24896 32866 ft 534 kts 133°
2026-04-25 20:27 -13.84419 99.30777 32864 ft 534 kts 133°
2026-04-25 20:27 -13.89163 99.36666 32864 ft 534 kts 133°
2026-04-25 20:28 -13.93870 99.42516 32863 ft 534 kts 133°
2026-04-25 20:28 -13.98609 99.48409 32863 ft 534 kts 133°
2026-04-25 20:29 -14.03347 99.54306 32872 ft 534 kts 133°
2026-04-25 20:29 -14.08069 99.60186 32873 ft 537 kts 133°
2026-04-25 20:30 -14.12835 99.66125 32877 ft 538 kts 133°
2026-04-25 20:30 -14.17600 99.72069 32880 ft 538 kts 133°
2026-04-25 20:31 -14.22364 99.78017 32876 ft 538 kts 133°
2026-04-25 20:31 -14.27127 99.83965 32874 ft 538 kts 133°
2026-04-25 20:32 -14.31850 99.89870 32880 ft 537 kts 133°
2026-04-25 20:32 -14.36605 99.95818 32893 ft 537 kts 133°
2026-04-25 20:33 -14.41356 100.01766 32874 ft 537 kts 133°
2026-04-25 20:33 -14.45304 100.06712 32876 ft 537 kts 133°
2026-04-25 20:34 -14.50821 100.13627 32875 ft 537 kts 133°
2026-04-25 20:34 -14.55565 100.19579 32876 ft 537 kts 133°
2026-04-25 20:35 -14.60309 100.25536 32877 ft 537 kts 133°
2026-04-25 20:35 -14.65046 100.31488 32870 ft 536 kts 133°
2026-04-25 20:36 -14.69750 100.37403 32886 ft 537 kts 133°
2026-04-25 20:36 -14.74498 100.43377 32879 ft 539 kts 133°
2026-04-25 20:37 -14.79259 100.49373 32878 ft 540 kts 133°
2026-04-25 20:37 -14.84017 100.55370 32881 ft 540 kts 133°
2026-04-25 20:38 -14.88743 100.61332 32883 ft 539 kts 133°
2026-04-25 20:38 -14.93493 100.67327 32884 ft 539 kts 133°
2026-04-25 20:39 -14.98238 100.73321 32887 ft 539 kts 133°
2026-04-25 20:39 -15.02180 100.78304 32886 ft 539 kts 133°
2026-04-25 20:40 -15.07732 100.85327 32883 ft 541 kts 133°
2026-04-25 20:40 -15.12464 100.91318 32887 ft 541 kts 133°
2026-04-25 20:41 -15.17223 100.97350 32887 ft 541 kts 132°
2026-04-25 20:41 -15.21982 101.03385 32887 ft 541 kts 132°
2026-04-25 20:42 -15.26742 101.09426 32883 ft 541 kts 132°
2026-04-25 20:42 -15.31464 101.15424 32884 ft 541 kts 132°
2026-04-25 20:43 -15.36221 101.21470 32897 ft 541 kts 132°
2026-04-25 20:43 -15.40974 101.27517 32884 ft 542 kts 132°
2026-04-25 20:44 -15.45730 101.33573 32885 ft 542 kts 132°
2026-04-25 20:44 -15.50458 101.39598 32889 ft 542 kts 132°
2026-04-25 20:45 -15.55217 101.45667 32888 ft 542 kts 132°
2026-04-25 20:45 -15.59974 101.51738 32890 ft 542 kts 132°
2026-04-25 20:46 -15.64733 101.57817 32889 ft 542 kts 132°
2026-04-25 20:46 -15.69488 101.63895 32900 ft 542 kts 132°
2026-04-25 20:47 -15.74210 101.69937 32888 ft 542 kts 132°
2026-04-25 20:47 -15.78963 101.76023 32895 ft 542 kts 132°
2026-04-25 20:48 -15.83709 101.82105 32897 ft 542 kts 132°
2026-04-25 20:48 -15.88457 101.88195 32897 ft 542 kts 132°
2026-04-25 20:49 -15.93167 101.94241 32895 ft 542 kts 132°
2026-04-25 20:49 -15.97912 102.00337 32893 ft 542 kts 132°
2026-04-25 20:50 -16.02651 102.06430 32899 ft 542 kts 131°
2026-04-25 20:50 -16.07390 102.12528 32898 ft 542 kts 131°
2026-04-25 20:51 -16.12095 102.18589 32897 ft 542 kts 131°
2026-04-25 20:51 -16.16824 102.24685 32898 ft 542 kts 131°
2026-04-25 20:52 -16.20755 102.29756 32898 ft 542 kts 131°
2026-04-25 20:52 -16.26284 102.36895 32898 ft 542 kts 131°
2026-04-25 20:53 -16.31010 102.43002 32895 ft 542 kts 131°
2026-04-25 20:53 -16.35700 102.49067 32908 ft 542 kts 131°
2026-04-25 20:54 -16.40430 102.55190 32905 ft 543 kts 131°
2026-04-25 20:54 -16.45161 102.61321 32904 ft 543 kts 131°
2026-04-25 20:55 -16.49888 102.67450 32904 ft 543 kts 131°
2026-04-25 20:55 -16.54582 102.73543 32905 ft 543 kts 131°
2026-04-25 20:56 -16.59301 102.79673 32901 ft 543 kts 131°
2026-04-25 20:56 -16.64028 102.85819 32904 ft 543 kts 131°
2026-04-25 20:57 -16.68750 102.91963 32902 ft 544 kts 131°
2026-04-25 20:57 -16.73449 102.98083 32907 ft 544 kts 131°
2026-04-25 20:58 -16.78176 103.04246 32907 ft 544 kts 131°
2026-04-25 20:58 -16.82901 103.10411 32910 ft 544 kts 131°
2026-04-25 20:59 -16.87622 103.16576 32910 ft 544 kts 131°
2026-04-25 20:59 -16.92343 103.22746 32910 ft 544 kts 131°
2026-04-25 21:00 -16.95473 103.26840 32907 ft 544 kts 131°
2026-04-25 21:01 -17.04123 103.38167 32905 ft 545 kts 131°
2026-04-25 21:01 -17.08844 103.44357 32905 ft 544 kts 131°
2026-04-25 21:02 -17.13562 103.50548 32904 ft 544 kts 131°
2026-04-25 21:02 -17.18247 103.56703 32904 ft 545 kts 131°
2026-04-25 21:03 -17.22964 103.62904 32906 ft 545 kts 131°
2026-04-25 21:03 -17.27678 103.69108 32925 ft 545 kts 130°
2026-04-25 21:04 -17.32394 103.75318 32909 ft 545 kts 130°
2026-04-25 21:04 -17.37078 103.81493 32909 ft 545 kts 130°
2026-04-25 21:05 -17.41789 103.87709 32906 ft 545 kts 130°
2026-04-25 21:05 -17.46489 103.93918 32913 ft 543 kts 130°
2026-04-25 21:06 -17.51180 104.00120 32913 ft 543 kts 130°
2026-04-25 21:06 -17.55834 104.06278 32910 ft 543 kts 130°
2026-04-25 21:07 -17.60519 104.12482 32913 ft 543 kts 130°
2026-04-25 21:07 -17.65201 104.18690 32913 ft 543 kts 130°
2026-04-25 21:08 -17.69878 104.24896 32910 ft 542 kts 130°
2026-04-25 21:08 -17.74549 104.31099 32911 ft 542 kts 130°
2026-04-25 21:09 -17.81518 104.40366 32915 ft 542 kts 130°
2026-04-25 21:09 -17.86183 104.46576 32915 ft 542 kts 130°
2026-04-25 21:10 -17.90843 104.52785 32929 ft 542 kts 130°
2026-04-25 21:10 -17.95473 104.58961 32912 ft 542 kts 130°
2026-04-25 21:11 -18.00132 104.65182 32914 ft 542 kts 130°
2026-04-25 21:11 -18.04791 104.71408 32929 ft 542 kts 130°
2026-04-25 21:12 -18.09446 104.77634 32919 ft 542 kts 130°
2026-04-25 21:12 -18.13312 104.82810 32916 ft 542 kts 130°
2026-04-25 21:13 -18.18715 104.90050 32912 ft 542 kts 130°
2026-04-25 21:13 -18.23360 104.96280 32921 ft 540 kts 129°
2026-04-25 21:14 -18.27987 105.02494 32922 ft 539 kts 129°
2026-04-25 21:14 -18.32574 105.08660 32924 ft 538 kts 129°
2026-04-25 21:15 -18.37186 105.14865 32925 ft 538 kts 129°
2026-04-25 21:15 -18.41800 105.21078 32924 ft 538 kts 129°
2026-04-25 21:16 -18.46410 105.27292 32924 ft 538 kts 129°
2026-04-25 21:16 -18.51015 105.33505 32927 ft 537 kts 129°
2026-04-25 21:17 -18.55587 105.39681 32930 ft 538 kts 129°
2026-04-25 21:17 -18.60186 105.45899 32930 ft 538 kts 129°
2026-04-25 21:18 -18.64785 105.52123 32933 ft 538 kts 129°
2026-04-25 21:18 -18.69382 105.58350 32933 ft 538 kts 129°
2026-04-25 21:19 -18.73975 105.64577 32933 ft 538 kts 129°
2026-04-25 21:19 -18.78526 105.70755 32946 ft 536 kts 129°
2026-04-25 21:20 -18.81587 105.74912 32929 ft 537 kts 128°
2026-04-25 21:20 -18.87695 105.83219 32939 ft 538 kts 128°
2026-04-25 21:21 -18.92285 105.89468 32939 ft 538 kts 128°
2026-04-25 21:21 -18.96871 105.95717 32938 ft 538 kts 128°
2026-04-25 21:22 -19.01418 106.01936 32939 ft 538 kts 127°
2026-04-25 21:22 -19.05803 106.08314 32939 ft 535 kts 125°
2026-04-25 21:23 -19.10110 106.14734 32941 ft 536 kts 125°
2026-04-25 21:23 -19.14458 106.21172 32939 ft 538 kts 125°
2026-04-25 21:24 -19.18830 106.27605 32942 ft 539 kts 126°
2026-04-25 21:24 -19.23177 106.33995 32944 ft 539 kts 126°
2026-04-25 21:25 -19.27545 106.40420 32946 ft 536 kts 125°
2026-04-25 21:25 -19.31885 106.46814 32940 ft 534 kts 125°
2026-04-25 21:26 -19.36216 106.53204 32946 ft 534 kts 125°
2026-04-25 21:26 -19.40525 106.59566 32948 ft 536 kts 125°
2026-04-25 21:27 -19.44871 106.65992 32949 ft 537 kts 125°
2026-04-25 21:27 -19.49227 106.72437 32946 ft 537 kts 125°
2026-04-25 21:28 -19.53563 106.78861 32949 ft 535 kts 125°
2026-04-25 21:28 -19.57861 106.85234 32949 ft 535 kts 125°
2026-04-25 21:29 -19.62183 106.91651 32950 ft 535 kts 125°
2026-04-25 21:29 -19.66504 106.98072 32960 ft 535 kts 125°
2026-04-25 21:30 -19.70813 107.04482 32954 ft 538 kts 125°
2026-04-25 21:30 -19.74449 107.09896 32954 ft 536 kts 125°
2026-04-25 21:31 -19.79466 107.17375 32955 ft 535 kts 125°
2026-04-25 21:31 -19.83776 107.23808 32957 ft 535 kts 125°
2026-04-25 21:32 -19.88058 107.30205 32960 ft 534 kts 125°
2026-04-25 21:32 -19.92363 107.36645 32960 ft 534 kts 125°
2026-04-25 21:33 -19.96671 107.43095 32957 ft 535 kts 124°
2026-04-25 21:33 -20.00972 107.49543 32963 ft 534 kts 124°
2026-04-25 21:34 -20.05267 107.55987 32963 ft 534 kts 124°
2026-04-25 21:34 -20.09533 107.62396 32964 ft 534 kts 124°
2026-04-25 21:35 -20.13824 107.68848 32966 ft 534 kts 124°
2026-04-25 21:35 -20.18109 107.75300 32955 ft 534 kts 124°
2026-04-25 21:36 -20.22388 107.81749 32974 ft 533 kts 124°
2026-04-25 21:36 -20.26647 107.88173 32969 ft 535 kts 124°
2026-04-25 21:37 -20.29516 107.92507 32974 ft 536 kts 124°
2026-04-25 21:37 -20.35232 108.01149 32977 ft 536 kts 124°
2026-04-25 21:38 -20.39518 108.07637 32976 ft 535 kts 124°
2026-04-25 21:38 -20.43772 108.14083 32980 ft 535 kts 124°
2026-04-25 21:39 -20.48054 108.20580 32979 ft 535 kts 124°
2026-04-25 21:39 -20.52334 108.27081 32979 ft 535 kts 124°
2026-04-25 21:40 -20.56582 108.33540 32985 ft 535 kts 124°
2026-04-25 21:40 -20.60857 108.40048 32985 ft 535 kts 124°
2026-04-25 21:41 -20.65123 108.46551 32983 ft 534 kts 124°
2026-04-25 21:41 -20.69374 108.53036 32986 ft 532 kts 124°
2026-04-25 21:42 -20.73617 108.59518 32989 ft 532 kts 124°
2026-04-25 21:42 -20.77832 108.65963 32994 ft 534 kts 124°
2026-04-25 21:43 -20.82091 108.72483 32991 ft 536 kts 124°
2026-04-25 21:43 -20.86349 108.79011 32983 ft 535 kts 124°
2026-04-25 21:44 -20.90603 108.85538 32996 ft 534 kts 124°
2026-04-25 21:45 -20.96935 108.95268 32995 ft 533 kts 124°
2026-04-25 21:45 -21.00995 109.01906 32999 ft 533 kts 120°
2026-04-25 21:46 -21.04723 109.08769 33002 ft 535 kts 119°
2026-04-25 21:46 -21.08392 109.15665 33000 ft 537 kts 119°
2026-04-25 21:47 -21.12079 109.22612 33001 ft 536 kts 119°
2026-04-25 21:47 -21.15769 109.29554 33004 ft 536 kts 119°
2026-04-25 21:48 -21.19455 109.36490 33007 ft 536 kts 119°
2026-04-25 21:48 -21.23118 109.43390 33006 ft 536 kts 119°
2026-04-25 21:49 -21.26800 109.50334 33006 ft 535 kts 119°
2026-04-25 21:49 -21.30466 109.57258 33009 ft 535 kts 119°
2026-04-25 21:50 -21.34147 109.64219 33005 ft 537 kts 119°
2026-04-25 21:50 -21.37827 109.71186 33007 ft 537 kts 119°
2026-04-25 21:51 -21.41480 109.78112 33007 ft 537 kts 119°
2026-04-25 21:51 -21.45152 109.85082 33006 ft 535 kts 119°
2026-04-25 21:52 -21.48810 109.92036 33007 ft 535 kts 119°
2026-04-25 21:52 -21.52440 109.98944 33008 ft 535 kts 119°
2026-04-25 21:53 -21.56091 110.05902 33007 ft 536 kts 119°
2026-04-25 21:53 -21.59751 110.12885 33004 ft 537 kts 119°
2026-04-25 21:54 -21.63408 110.19872 33004 ft 536 kts 119°
2026-04-25 21:54 -21.67052 110.26844 33002 ft 535 kts 119°
2026-04-25 21:55 -21.70672 110.33779 33000 ft 535 kts 119°
2026-04-25 21:55 -21.74310 110.40757 32999 ft 535 kts 119°
2026-04-25 21:56 -21.77949 110.47746 32970 ft 535 kts 119°
2026-04-25 21:56 -21.81575 110.54719 32996 ft 533 kts 119°
2026-04-25 21:57 -21.85164 110.61631 32995 ft 533 kts 119°
2026-04-25 21:57 -21.88778 110.68600 32994 ft 533 kts 119°
2026-04-25 21:58 -21.92388 110.75570 32989 ft 533 kts 119°
2026-04-25 21:58 -21.95998 110.82549 32985 ft 533 kts 118°
2026-04-25 21:59 -21.99567 110.89458 32987 ft 530 kts 118°
2026-04-25 21:59 -22.03151 110.96405 33006 ft 530 kts 118°
2026-04-25 22:00 -22.08529 111.06847 32991 ft 532 kts 119°
2026-04-25 22:00 -22.12093 111.13778 32991 ft 532 kts 119°
2026-04-25 22:01 -22.15678 111.20760 32982 ft 532 kts 118°
2026-04-25 22:01 -22.18073 111.25429 32982 ft 532 kts 118°
2026-04-25 22:02 -22.22834 111.34724 32979 ft 532 kts 118°
2026-04-25 22:02 -22.26385 111.41668 32980 ft 532 kts 118°
2026-04-25 22:03 -22.29956 111.48660 32983 ft 532 kts 119°
2026-04-25 22:03 -22.33528 111.55662 32979 ft 532 kts 118°
2026-04-25 22:04 -22.37096 111.62667 32979 ft 532 kts 118°
2026-04-25 22:04 -22.40639 111.69631 32977 ft 532 kts 118°
2026-04-25 22:05 -22.44203 111.76646 32980 ft 532 kts 118°
2026-04-25 22:05 -22.47760 111.83659 32979 ft 532 kts 118°
2026-04-25 22:06 -22.51315 111.90678 32997 ft 532 kts 118°
2026-04-25 22:06 -22.54847 111.97659 32978 ft 533 kts 118°
2026-04-25 22:07 -22.57826 112.03555 32974 ft 533 kts 118°
2026-04-25 22:07 -22.61960 112.11747 32971 ft 533 kts 118°
2026-04-25 22:08 -22.65506 112.18786 32977 ft 532 kts 118°
2026-04-25 22:08 -22.69045 112.25820 32977 ft 532 kts 118°
2026-04-25 22:09 -22.72554 112.32804 32974 ft 532 kts 118°
2026-04-25 22:09 -22.76088 112.39846 32975 ft 532 kts 118°
2026-04-25 22:10 -22.79627 112.46910 32967 ft 534 kts 118°
2026-04-25 22:10 -22.83158 112.53969 32971 ft 532 kts 118°
2026-04-25 22:11 -22.86662 112.60980 32974 ft 532 kts 118°
2026-04-25 22:11 -22.90181 112.68034 32974 ft 532 kts 118°
2026-04-25 22:12 -22.93698 112.75093 32971 ft 532 kts 118°
2026-04-25 22:12 -22.96025 112.79769 32961 ft 532 kts 118°
2026-04-25 22:13 -23.00690 112.89156 32969 ft 530 kts 118°
2026-04-25 22:13 -23.04188 112.96205 32966 ft 530 kts 118°
2026-04-25 22:14 -23.07679 113.03253 32968 ft 530 kts 118°
2026-04-25 22:14 -23.10580 113.09115 32969 ft 530 kts 118°
2026-04-25 22:15 -23.14066 113.16170 32968 ft 529 kts 118°
2026-04-25 22:16 -23.19845 113.27888 32978 ft 529 kts 118°
2026-04-25 22:16 -23.22731 113.33747 32971 ft 529 kts 118°
2026-04-25 22:17 -23.26201 113.40805 32971 ft 529 kts 118°
2026-04-25 22:17 -23.29670 113.47870 32972 ft 530 kts 118°
2026-04-25 22:18 -23.33138 113.54944 32969 ft 530 kts 118°
2026-04-25 22:18 -23.36587 113.61987 32968 ft 530 kts 118°
2026-04-25 22:19 -23.40050 113.69070 32971 ft 530 kts 118°
2026-04-25 22:19 -23.43510 113.76158 32967 ft 530 kts 118°
2026-04-25 22:20 -23.46970 113.83256 32971 ft 530 kts 118°
2026-04-25 22:20 -23.50649 113.90143 32975 ft 529 kts 128°
2026-04-25 22:21 -23.55173 113.96472 32975 ft 529 kts 130°
2026-04-25 22:21 -23.59824 114.02678 32973 ft 529 kts 130°
2026-04-25 22:22 -23.64461 114.08837 32973 ft 529 kts 130°
2026-04-25 22:22 -23.69111 114.15049 32976 ft 529 kts 130°
2026-04-25 22:23 -23.73755 114.21279 32977 ft 529 kts 130°
2026-04-25 22:23 -23.78394 114.27515 32980 ft 529 kts 130°
2026-04-25 22:24 -23.83000 114.33713 32980 ft 529 kts 130°
2026-04-25 22:24 -23.87634 114.39955 32980 ft 529 kts 130°
2026-04-25 22:25 -23.92264 114.46201 32983 ft 529 kts 131°
2026-04-25 22:25 -23.96889 114.52447 32985 ft 528 kts 131°
2026-04-25 22:26 -24.01511 114.58696 32989 ft 528 kts 130°
2026-04-25 22:26 -24.06097 114.64906 32994 ft 528 kts 130°
2026-04-25 22:27 -24.10713 114.71163 32992 ft 528 kts 130°
2026-04-25 22:27 -24.15327 114.77426 33004 ft 528 kts 130°
2026-04-25 22:28 -24.19933 114.83686 33002 ft 528 kts 130°
2026-04-25 22:28 -24.24507 114.89911 33001 ft 528 kts 130°
2026-04-25 22:29 -24.29109 114.96181 33001 ft 528 kts 130°
2026-04-25 22:29 -24.33708 115.02456 32993 ft 528 kts 131°
2026-04-25 22:30 -24.40581 115.11849 33009 ft 525 kts 131°
2026-04-25 22:30 -24.44379 115.17047 33015 ft 525 kts 131°
2026-04-25 22:31 -24.49686 115.24319 33015 ft 525 kts 131°
2026-04-25 22:31 -24.54249 115.30580 33021 ft 525 kts 131°
2026-04-25 22:32 -24.58807 115.36843 33020 ft 524 kts 131°
2026-04-25 22:32 -24.63324 115.43058 33020 ft 523 kts 131°
2026-04-25 22:33 -24.67865 115.49312 33020 ft 523 kts 131°
2026-04-25 22:33 -24.72399 115.55566 33020 ft 523 kts 131°
2026-04-25 22:34 -24.76933 115.61828 33020 ft 523 kts 131°
2026-04-25 22:34 -24.81431 115.68049 33021 ft 523 kts 131°
2026-04-25 22:35 -24.85953 115.74311 33020 ft 522 kts 131°
2026-04-25 22:35 -24.90472 115.80576 33023 ft 522 kts 131°
2026-04-25 22:36 -24.94988 115.86846 33023 ft 522 kts 131°
2026-04-25 22:36 -24.99482 115.93094 33028 ft 522 kts 131°
2026-04-25 22:37 -25.03989 115.99368 33028 ft 522 kts 131°
2026-04-25 22:37 -25.08463 116.05604 33034 ft 522 kts 131°
2026-04-25 22:38 -25.12962 116.11883 33045 ft 522 kts 131°
2026-04-25 22:38 -25.17494 116.18214 33244 ft 530 kts 131°
2026-04-25 22:39 -25.19787 116.21421 33380 ft 534 kts 131°
2026-04-25 22:39 -25.22101 116.24657 33503 ft 539 kts 131°
2026-04-25 22:39 -25.24430 116.27921 33634 ft 543 kts 131°
2026-04-25 22:39 -25.26776 116.31209 33785 ft 546 kts 131°
2026-04-25 22:40 -25.29098 116.34467 34013 ft 548 kts 131°
2026-04-25 22:40 -25.31454 116.37776 34257 ft 548 kts 131°
2026-04-25 22:40 -25.33812 116.41089 34501 ft 549 kts 131°
2026-04-25 22:40 -25.36170 116.44406 34704 ft 549 kts 131°
2026-04-25 22:41 -25.38532 116.47729 34939 ft 549 kts 131°
2026-04-25 22:41 -25.40893 116.51052 35191 ft 549 kts 131°
2026-04-25 22:41 -25.43249 116.54372 35425 ft 549 kts 131°
2026-04-25 22:41 -25.45579 116.57657 35645 ft 550 kts 131°
2026-04-25 22:42 -25.47934 116.60980 35890 ft 549 kts 131°
2026-04-25 22:42 -25.50294 116.64312 36115 ft 550 kts 131°
2026-04-25 22:42 -25.52654 116.67646 36307 ft 550 kts 131°
2026-04-25 22:42 -25.55013 116.70982 36514 ft 551 kts 131°
2026-04-25 22:43 -25.57377 116.74326 36703 ft 551 kts 131°
2026-04-25 22:43 -25.59735 116.77663 36905 ft 551 kts 131°
2026-04-25 22:43 -25.62097 116.81010 37097 ft 551 kts 131°
2026-04-25 22:43 -25.64458 116.84358 37276 ft 551 kts 131°
2026-04-25 22:44 -25.66786 116.87661 37470 ft 551 kts 131°
2026-04-25 22:44 -25.69145 116.91011 37668 ft 551 kts 131°
2026-04-25 22:44 -25.71500 116.94358 37837 ft 551 kts 131°
2026-04-25 22:44 -25.73863 116.97716 37978 ft 552 kts 131°
2026-04-25 22:45 -25.76224 117.01075 38123 ft 553 kts 131°
2026-04-25 22:45 -25.78586 117.04439 38310 ft 553 kts 131°
2026-04-25 22:45 -25.80948 117.07805 38461 ft 553 kts 131°
2026-04-25 22:45 -25.83310 117.11173 38608 ft 553 kts 132°
2026-04-25 22:46 -25.85671 117.14543 38760 ft 553 kts 132°
2026-04-25 22:46 -25.88001 117.17871 38881 ft 553 kts 132°
2026-04-25 22:46 -25.90361 117.21244 39013 ft 552 kts 132°
2026-04-25 22:46 -25.92715 117.24611 39101 ft 553 kts 132°
2026-04-25 22:47 -25.97432 117.31364 39098 ft 552 kts 132°
2026-04-25 22:47 -26.02139 117.38114 39103 ft 552 kts 132°
2026-04-25 22:48 -26.06842 117.44867 39103 ft 552 kts 132°
2026-04-25 22:48 -26.11510 117.51581 39107 ft 552 kts 132°
2026-04-25 22:49 -26.16263 117.58285 39108 ft 551 kts 135°
2026-04-25 22:49 -26.21225 117.64771 39114 ft 550 kts 136°
2026-04-25 22:50 -26.26208 117.71239 39116 ft 550 kts 135°
2026-04-25 22:50 -26.31122 117.77699 39120 ft 550 kts 135°
2026-04-25 22:51 -26.36048 117.84230 39130 ft 550 kts 135°
2026-04-25 22:51 -26.40971 117.90775 39126 ft 551 kts 135°
2026-04-25 22:52 -26.45891 117.97324 39124 ft 551 kts 135°
2026-04-25 22:52 -26.49979 118.02770 39123 ft 551 kts 135°
2026-04-25 22:53 -26.55695 118.10397 39130 ft 551 kts 135°
2026-04-25 22:53 -26.60604 118.16958 39135 ft 550 kts 135°
2026-04-25 22:54 -26.65516 118.23530 39135 ft 550 kts 135°
2026-04-25 22:54 -26.70385 118.30055 39140 ft 551 kts 135°
2026-04-25 22:55 -26.75291 118.36639 39139 ft 551 kts 135°
2026-04-25 22:55 -26.80185 118.43220 39147 ft 550 kts 135°
2026-04-25 22:56 -26.85071 118.49797 39146 ft 549 kts 135°
2026-04-25 22:56 -26.89922 118.56335 39148 ft 549 kts 135°
2026-04-25 22:57 -26.94799 118.62920 39155 ft 549 kts 135°
2026-04-25 22:57 -26.99676 118.69515 39156 ft 549 kts 135°
2026-04-25 22:58 -27.04541 118.76104 39156 ft 548 kts 135°
2026-04-25 22:58 -27.09364 118.82645 39159 ft 548 kts 135°
2026-04-25 22:59 -27.14220 118.89241 39165 ft 548 kts 135°
2026-04-25 22:59 -27.19071 118.95838 39172 ft 548 kts 135°
2026-04-25 23:00 -27.23912 119.02436 39170 ft 547 kts 136°
2026-04-25 23:00 -27.28720 119.08995 39176 ft 547 kts 136°
2026-04-25 23:01 -27.33557 119.15603 39178 ft 547 kts 136°
2026-04-25 23:01 -27.38387 119.22214 39183 ft 547 kts 135°
2026-04-25 23:02 -27.43216 119.28832 39184 ft 546 kts 136°
2026-04-25 23:02 -27.48029 119.35441 39184 ft 546 kts 136°
2026-04-25 23:03 -27.52812 119.42016 39185 ft 546 kts 136°
2026-04-25 23:03 -27.57620 119.48635 39209 ft 546 kts 136°
2026-04-25 23:04 -27.62423 119.55260 39188 ft 545 kts 136°
2026-04-25 23:04 -27.67208 119.61869 39194 ft 544 kts 136°
2026-04-25 23:05 -27.71957 119.68437 39197 ft 543 kts 136°
2026-04-25 23:05 -27.76733 119.75052 39197 ft 543 kts 136°
2026-04-25 23:06 -27.81499 119.81667 39203 ft 542 kts 136°
2026-04-25 23:06 -27.86244 119.88261 39203 ft 540 kts 136°
2026-04-25 23:07 -27.90984 119.94857 39209 ft 540 kts 136°
2026-04-25 23:07 -27.95682 120.01403 39207 ft 540 kts 136°
2026-04-25 23:08 -28.00407 120.08000 39208 ft 538 kts 136°
2026-04-25 23:08 -28.05115 120.14584 39213 ft 537 kts 136°
2026-04-25 23:09 -28.09809 120.21157 39211 ft 536 kts 136°
2026-04-25 23:09 -28.14462 120.27682 39219 ft 536 kts 136°
2026-04-25 23:10 -28.19143 120.34257 39211 ft 535 kts 136°
2026-04-25 23:10 -28.23812 120.40826 39222 ft 535 kts 136°
2026-04-25 23:11 -28.28472 120.47393 39223 ft 534 kts 136°
2026-04-25 23:11 -28.33096 120.53917 39224 ft 534 kts 136°
2026-04-25 23:12 -28.37744 120.60485 39230 ft 532 kts 136°
2026-04-25 23:12 -28.42355 120.67016 39227 ft 529 kts 136°
2026-04-25 23:13 -28.46954 120.73537 39234 ft 529 kts 136°
2026-04-25 23:13 -28.51523 120.80021 39234 ft 529 kts 136°
2026-04-25 23:14 -28.56116 120.86552 39241 ft 527 kts 135°
2026-04-25 23:14 -28.60676 120.93052 39237 ft 524 kts 135°
2026-04-25 23:15 -28.65217 120.99529 39241 ft 523 kts 135°
2026-04-25 23:15 -28.69719 121.05959 39241 ft 522 kts 135°
2026-04-25 23:16 -28.74242 121.12430 39253 ft 522 kts 135°
2026-04-25 23:16 -28.78756 121.18899 39248 ft 521 kts 135°
2026-04-25 23:17 -28.83262 121.25367 39253 ft 521 kts 135°
2026-04-25 23:17 -28.87652 121.31862 39254 ft 524 kts 129°
2026-04-25 23:18 -28.91460 121.38983 39267 ft 527 kts 126°
2026-04-25 23:18 -28.95127 121.46214 39249 ft 526 kts 125°
2026-04-25 23:19 -28.98766 121.53460 39247 ft 526 kts 126°
2026-04-25 23:19 -29.02379 121.60640 39267 ft 525 kts 126°
2026-04-25 23:20 -29.06020 121.67867 39267 ft 524 kts 126°
2026-04-25 23:20 -29.09652 121.75087 39263 ft 523 kts 126°
2026-04-25 23:21 -29.13268 121.82287 39262 ft 521 kts 126°
2026-04-25 23:21 -29.16850 121.89428 39262 ft 521 kts 126°
2026-04-25 23:22 -29.20454 121.96628 39269 ft 521 kts 126°
2026-04-25 23:23 -29.25855 122.07442 39269 ft 521 kts 126°
2026-04-25 23:23 -29.29424 122.14606 39267 ft 522 kts 126°
2026-04-25 23:24 -29.33019 122.21834 39272 ft 522 kts 126°
2026-04-25 23:24 -29.36609 122.29065 39272 ft 522 kts 126°
2026-04-25 23:25 -29.40198 122.36307 39277 ft 523 kts 126°
2026-04-25 23:25 -29.43779 122.43540 39275 ft 526 kts 126°
2026-04-25 23:26 -29.47387 122.50847 39277 ft 527 kts 126°
2026-04-25 23:26 -29.50994 122.58168 39276 ft 526 kts 126°
2026-04-25 23:27 -29.54595 122.65489 39280 ft 527 kts 126°
2026-04-25 23:27 -29.58174 122.72774 39284 ft 528 kts 126°
2026-04-25 23:28 -29.61776 122.80122 39284 ft 528 kts 126°
2026-04-25 23:28 -29.65378 122.87482 39290 ft 528 kts 126°
2026-04-25 23:29 -29.68972 122.94843 39289 ft 528 kts 126°
2026-04-25 23:29 -29.72534 123.02149 39291 ft 527 kts 126°
2026-04-25 23:30 -29.76110 123.09498 39292 ft 526 kts 126°
2026-04-25 23:30 -29.79680 123.16849 39290 ft 526 kts 126°
2026-04-25 23:31 -29.83245 123.24200 39292 ft 526 kts 126°
2026-04-25 23:31 -29.86805 123.31556 39299 ft 525 kts 124°
2026-04-25 23:32 -29.90330 123.38856 39297 ft 524 kts 124°
2026-04-25 23:32 -29.93869 123.46196 39295 ft 524 kts 124°
2026-04-25 23:33 -29.97402 123.53536 39299 ft 524 kts 124°
2026-04-25 23:33 -30.00937 123.60893 39318 ft 524 kts 124°
2026-04-25 23:34 -30.04433 123.68184 39308 ft 522 kts 124°
2026-04-25 23:34 -30.07935 123.75504 39302 ft 520 kts 123°
2026-04-25 23:35 -30.11427 123.82817 39301 ft 520 kts 123°
2026-04-25 23:35 -30.14918 123.90137 39305 ft 520 kts 123°
2026-04-25 23:36 -30.18375 123.97401 39313 ft 518 kts 123°
2026-04-25 23:36 -30.21839 124.04695 39310 ft 517 kts 123°
2026-04-25 23:37 -30.25294 124.11981 39313 ft 517 kts 123°
2026-04-25 23:37 -30.28746 124.19276 39308 ft 517 kts 123°
2026-04-25 23:38 -30.32167 124.26517 39313 ft 515 kts 122°
2026-04-25 23:38 -30.35597 124.33794 39301 ft 514 kts 122°
2026-04-25 23:39 -30.39019 124.41066 39320 ft 514 kts 122°
2026-04-25 23:39 -30.42435 124.48338 39323 ft 514 kts 122°
2026-04-25 23:40 -30.45826 124.55570 39314 ft 513 kts 121°
2026-04-25 23:40 -30.49224 124.62834 39316 ft 512 kts 121°
2026-04-25 23:41 -30.52613 124.70090 39312 ft 512 kts 121°
2026-04-25 23:41 -30.55997 124.77346 39313 ft 511 kts 121°
2026-04-25 23:42 -30.59372 124.84599 39320 ft 510 kts 120°
2026-04-25 23:42 -30.62708 124.91783 39317 ft 508 kts 120°
2026-04-25 23:43 -30.66060 124.99015 39319 ft 508 kts 120°
2026-04-25 23:43 -30.69401 125.06233 39319 ft 507 kts 120°
2026-04-25 23:44 -30.72733 125.13450 39327 ft 507 kts 120°
2026-04-25 23:44 -30.76039 125.20622 39325 ft 507 kts 120°
2026-04-25 23:45 -30.79362 125.27845 39324 ft 506 kts 120°
2026-04-25 23:45 -30.82676 125.35061 39325 ft 506 kts 120°
2026-04-25 23:46 -30.85986 125.42284 39332 ft 505 kts 119°
2026-04-25 23:46 -30.89261 125.49441 39325 ft 503 kts 119°
2026-04-25 23:47 -30.92538 125.56619 39330 ft 501 kts 118°
2026-04-25 23:47 -30.95807 125.63793 39330 ft 501 kts 118°
2026-04-25 23:48 -30.99072 125.70971 39330 ft 501 kts 118°
2026-04-25 23:48 -31.02308 125.78098 39330 ft 500 kts 118°
2026-04-25 23:49 -31.05548 125.85248 39333 ft 499 kts 118°
2026-04-25 23:49 -31.08786 125.92408 39338 ft 499 kts 118°
2026-04-25 23:50 -31.12018 125.99568 39339 ft 499 kts 118°
2026-04-25 23:50 -31.15245 126.06730 39340 ft 498 kts 118°
2026-04-25 23:51 -31.18444 126.13843 39345 ft 498 kts 117°
2026-04-25 23:51 -31.21660 126.21009 39344 ft 498 kts 117°
2026-04-25 23:52 -31.24872 126.28179 39343 ft 498 kts 117°
2026-04-25 23:52 -31.28082 126.35357 39344 ft 498 kts 117°
2026-04-25 23:53 -31.31265 126.42491 39344 ft 498 kts 117°
2026-04-25 23:53 -31.34466 126.49678 39341 ft 498 kts 117°
2026-04-25 23:54 -31.37663 126.56868 39341 ft 498 kts 117°
2026-04-25 23:54 -31.40854 126.64061 39340 ft 498 kts 117°
2026-04-25 23:55 -31.44021 126.71213 39336 ft 498 kts 117°
2026-04-25 23:55 -31.47200 126.78414 39335 ft 498 kts 117°
2026-04-25 23:56 -31.50375 126.85623 39334 ft 497 kts 117°
2026-04-25 23:56 -31.53550 126.92823 39333 ft 497 kts 117°
2026-04-25 23:57 -31.56698 126.99980 39330 ft 497 kts 117°
2026-04-25 23:57 -31.59857 127.07181 39333 ft 496 kts 117°
2026-04-25 23:58 -31.63013 127.14392 39334 ft 496 kts 117°
2026-04-25 23:58 -31.66160 127.21597 39334 ft 496 kts 117°
2026-04-25 23:59 -31.69280 127.28754 39333 ft 495 kts 118°
2026-04-25 23:59 -31.72413 127.35955 39333 ft 495 kts 118°
2026-04-26 00:00 -31.75015 127.41944 39333 ft 495 kts 117°
2026-04-26 00:00 -31.78668 127.50370 39336 ft 495 kts 118°
2026-04-26 00:01 -31.81785 127.57579 39334 ft 494 kts 118°
2026-04-26 00:01 -31.84874 127.64733 39330 ft 494 kts 118°
2026-04-26 00:02 -31.87981 127.71944 39333 ft 494 kts 118°
2026-04-26 00:02 -31.91083 127.79159 39330 ft 494 kts 118°
2026-04-26 00:03 -31.94178 127.86371 39327 ft 494 kts 118°
2026-04-26 00:03 -31.97247 127.93537 39330 ft 494 kts 118°
2026-04-26 00:04 -32.00224 128.00825 39333 ft 494 kts 113°
2026-04-26 00:04 -32.02768 128.08345 39322 ft 494 kts 112°
2026-04-26 00:05 -32.05230 128.15908 39322 ft 494 kts 112°
2026-04-26 00:05 -32.07661 128.23427 39324 ft 494 kts 112°
2026-04-26 00:06 -32.10110 128.30984 39318 ft 493 kts 112°
2026-04-26 00:06 -32.12560 128.38550 39317 ft 494 kts 112°
2026-04-26 00:07 -32.15011 128.46128 39319 ft 494 kts 112°
2026-04-26 00:07 -32.17440 128.53658 39319 ft 494 kts 112°
2026-04-26 00:08 -32.19880 128.61239 39318 ft 494 kts 112°
2026-04-26 00:08 -32.22317 128.68831 39322 ft 494 kts 112°
2026-04-26 00:09 -32.24749 128.76430 39317 ft 495 kts 112°
2026-04-26 00:09 -32.27163 128.83986 39319 ft 495 kts 112°
2026-04-26 00:10 -32.29588 128.91596 39317 ft 495 kts 112°
2026-04-26 00:10 -32.32006 128.99203 39318 ft 495 kts 112°
2026-04-26 00:11 -32.34422 129.06822 39318 ft 495 kts 112°
2026-04-26 00:11 -32.36821 129.14404 39317 ft 495 kts 112°
2026-04-26 00:12 -32.39227 129.22031 39318 ft 495 kts 112°
2026-04-26 00:12 -32.41628 129.29658 39320 ft 495 kts 112°
2026-04-26 00:13 -32.44030 129.37307 39313 ft 496 kts 112°
2026-04-26 00:13 -32.46409 129.44900 39314 ft 495 kts 112°
2026-04-26 00:14 -32.48798 129.52544 39314 ft 495 kts 112°
2026-04-26 00:14 -32.51183 129.60197 39320 ft 495 kts 112°
2026-04-26 00:15 -32.53565 129.67857 39314 ft 496 kts 112°
2026-04-26 00:15 -32.55928 129.75471 39314 ft 495 kts 112°
2026-04-26 00:16 -32.58300 129.83139 39316 ft 495 kts 112°
2026-04-26 00:16 -32.60668 129.90810 39312 ft 496 kts 113°
2026-04-26 00:17 -32.63036 129.98500 39314 ft 496 kts 113°
2026-04-26 00:17 -32.65384 130.06146 39316 ft 497 kts 113°
2026-04-26 00:18 -32.67743 130.13846 39312 ft 496 kts 113°
2026-04-26 00:18 -32.70094 130.21542 39312 ft 496 kts 113°
2026-04-26 00:19 -32.72446 130.29257 39313 ft 497 kts 113°
2026-04-26 00:19 -32.74777 130.36925 39310 ft 497 kts 113°
2026-04-26 00:20 -32.77118 130.44643 39309 ft 497 kts 113°
2026-04-26 00:20 -32.79454 130.52366 39310 ft 497 kts 113°
2026-04-26 00:21 -32.81773 130.60052 39308 ft 497 kts 113°
2026-04-26 00:21 -32.84100 130.67784 39306 ft 497 kts 113°
2026-04-26 00:22 -32.86425 130.75526 39306 ft 497 kts 113°
2026-04-26 00:22 -32.88744 130.83272 39310 ft 497 kts 113°
2026-04-26 00:23 -32.91045 130.90978 39297 ft 497 kts 113°
2026-04-26 00:23 -32.93355 130.98735 39297 ft 497 kts 113°
2026-04-26 00:24 -32.95660 131.06493 39302 ft 497 kts 113°
2026-04-26 00:24 -32.97960 131.14254 39298 ft 497 kts 113°
2026-04-26 00:25 -33.00251 131.22008 39309 ft 496 kts 113°
2026-04-26 00:25 -33.02518 131.29700 39309 ft 495 kts 113°
2026-04-26 00:26 -33.04799 131.37455 39301 ft 495 kts 113°
2026-04-26 00:26 -33.07073 131.45210 39303 ft 496 kts 113°
2026-04-26 00:27 -33.09328 131.52918 39298 ft 496 kts 113°
2026-04-26 00:27 -33.11594 131.60688 39301 ft 495 kts 113°
2026-04-26 00:28 -33.13850 131.68444 39300 ft 495 kts 113°
2026-04-26 00:28 -33.16105 131.76214 39300 ft 496 kts 113°
2026-04-26 00:29 -33.18338 131.83932 39301 ft 495 kts 113°
2026-04-26 00:29 -33.20580 131.91698 39296 ft 495 kts 113°
2026-04-26 00:30 -33.22818 131.99471 39304 ft 495 kts 113°
2026-04-26 00:30 -33.25048 132.07241 39295 ft 495 kts 113°
2026-04-26 00:31 -33.27259 132.14962 39294 ft 494 kts 113°
2026-04-26 00:31 -33.29480 132.22740 39298 ft 494 kts 113°
2026-04-26 00:32 -33.31695 132.30517 39291 ft 494 kts 113°
2026-04-26 00:32 -33.35006 132.42182 39290 ft 494 kts 113°
2026-04-26 00:33 -33.37189 132.49903 39294 ft 493 kts 113°
2026-04-26 00:33 -33.39384 132.57681 39287 ft 493 kts 113°
2026-04-26 00:34 -33.41573 132.65461 39288 ft 493 kts 113°
2026-04-26 00:34 -33.43755 132.73237 39284 ft 493 kts 113°
2026-04-26 00:35 -33.45927 132.80999 39286 ft 493 kts 113°
2026-04-26 00:35 -33.48086 132.88734 39284 ft 493 kts 113°
2026-04-26 00:36 -33.50256 132.96531 39282 ft 493 kts 113°
2026-04-26 00:36 -33.52419 133.04326 39284 ft 493 kts 113°
2026-04-26 00:37 -33.54577 133.12125 39281 ft 493 kts 113°
2026-04-26 00:37 -33.56733 133.19935 39281 ft 493 kts 113°
2026-04-26 00:38 -33.58866 133.27687 39280 ft 493 kts 113°
2026-04-26 00:38 -33.61008 133.35492 39279 ft 492 kts 113°
2026-04-26 00:39 -33.63146 133.43300 39290 ft 493 kts 113°
2026-04-26 00:39 -33.65264 133.51061 39282 ft 492 kts 114°
2026-04-26 00:40 -33.67388 133.58864 39279 ft 492 kts 113°
2026-04-26 00:40 -33.69509 133.66679 39278 ft 492 kts 114°
2026-04-26 00:41 -33.71624 133.74494 39277 ft 492 kts 114°
2026-04-26 00:41 -33.73732 133.82304 39277 ft 492 kts 114°
2026-04-26 00:42 -33.75820 133.90064 39273 ft 491 kts 114°
2026-04-26 00:42 -33.77916 133.97873 39274 ft 491 kts 114°
2026-04-26 00:43 -33.80008 134.05688 39275 ft 491 kts 114°
2026-04-26 00:43 -33.82089 134.13488 39281 ft 490 kts 114°
2026-04-26 00:44 -33.84153 134.21242 39271 ft 490 kts 114°
2026-04-26 00:44 -33.86225 134.29052 39279 ft 490 kts 114°
2026-04-26 00:45 -33.87940 134.35534 39273 ft 489 kts 114°
2026-04-26 00:45 -33.90349 134.44661 39271 ft 489 kts 114°
2026-04-26 00:46 -33.92402 134.52466 39267 ft 489 kts 114°
2026-04-26 00:46 -33.94438 134.60224 39264 ft 489 kts 114°
2026-04-26 00:47 -33.96479 134.68032 39270 ft 488 kts 114°
2026-04-26 00:47 -33.98515 134.75836 39269 ft 488 kts 114°
2026-04-26 00:48 -34.00545 134.83643 39266 ft 488 kts 114°
2026-04-26 00:48 -34.02558 134.91405 39274 ft 488 kts 114°
2026-04-26 00:49 -34.04581 134.99227 39266 ft 489 kts 114°
2026-04-26 00:49 -34.06596 135.07050 39270 ft 488 kts 114°
2026-04-26 00:50 -34.08604 135.14863 39266 ft 488 kts 114°
2026-04-26 00:50 -34.10595 135.22629 39268 ft 488 kts 114°
2026-04-26 00:51 -34.12593 135.30447 39262 ft 488 kts 114°
2026-04-26 00:51 -34.14603 135.38256 39264 ft 486 kts 115°
2026-04-26 00:52 -34.16701 135.46006 39266 ft 485 kts 115°
2026-04-26 00:52 -34.18796 135.53689 39267 ft 485 kts 115°
2026-04-26 00:53 -34.20886 135.61435 39264 ft 485 kts 115°
2026-04-26 00:53 -34.22961 135.69185 39258 ft 485 kts 115°
2026-04-26 00:54 -34.25028 135.76940 39264 ft 485 kts 115°
2026-04-26 00:54 -34.27088 135.84688 39260 ft 484 kts 115°
2026-04-26 00:55 -34.29127 135.92375 39258 ft 483 kts 115°
2026-04-26 00:55 -34.31175 136.00117 39255 ft 483 kts 116°
2026-04-26 00:56 -34.33213 136.07850 39252 ft 482 kts 115°
2026-04-26 00:56 -34.35247 136.15585 39252 ft 483 kts 115°
2026-04-26 00:57 -34.37262 136.23272 39252 ft 482 kts 116°
2026-04-26 00:57 -34.39285 136.31004 39249 ft 482 kts 116°
2026-04-26 00:58 -34.41300 136.38734 39257 ft 482 kts 116°
2026-04-26 00:58 -34.43309 136.46463 39246 ft 481 kts 116°
2026-04-26 00:59 -34.45315 136.54201 39243 ft 481 kts 116°
2026-04-26 00:59 -34.47301 136.61885 39246 ft 480 kts 116°
2026-04-26 01:00 -34.49293 136.69616 39246 ft 480 kts 116°
2026-04-26 01:00 -34.51280 136.77349 39261 ft 480 kts 116°
2026-04-26 01:01 -34.53257 136.85074 39238 ft 479 kts 116°
2026-04-26 01:01 -34.55229 136.92795 39238 ft 479 kts 116°
2026-04-26 01:02 -34.57182 137.00464 39244 ft 479 kts 116°
2026-04-26 01:02 -34.59140 137.08180 39239 ft 478 kts 116°
2026-04-26 01:03 -34.61091 137.15884 39236 ft 478 kts 116°
2026-04-26 01:03 -34.63038 137.23600 39236 ft 478 kts 116°
2026-04-26 01:04 -34.64967 137.31263 39236 ft 478 kts 116°
2026-04-26 01:04 -34.66904 137.38986 39248 ft 477 kts 116°
2026-04-26 01:05 -34.68825 137.46673 39236 ft 475 kts 116°
2026-04-26 01:05 -34.70417 137.53055 39236 ft 475 kts 116°
2026-04-26 01:06 -34.72329 137.60736 39252 ft 475 kts 116°
2026-04-26 01:06 -34.74534 137.69646 39236 ft 473 kts 116°
2026-04-26 01:07 -34.76107 137.76008 39232 ft 473 kts 116°
2026-04-26 01:07 -34.77997 137.83663 39223 ft 472 kts 116°
2026-04-26 01:08 -34.80176 137.92533 39223 ft 470 kts 116°
2026-04-26 01:08 -34.81730 137.98872 39236 ft 470 kts 116°
2026-04-26 01:09 -34.83594 138.06496 39234 ft 469 kts 116°
2026-04-26 01:09 -34.85445 138.14101 39229 ft 468 kts 116°
2026-04-26 01:10 -34.87294 138.21710 39227 ft 469 kts 116°
2026-04-26 01:10 -34.89135 138.29313 39220 ft 467 kts 115°
2026-04-26 01:11 -34.90954 138.36852 39214 ft 467 kts 115°
2026-04-26 01:11 -34.92782 138.44445 39236 ft 467 kts 115°
2026-04-26 01:12 -34.94599 138.52023 39213 ft 465 kts 115°
2026-04-26 01:12 -34.96629 138.59448 39210 ft 459 kts 120°
2026-04-26 01:13 -34.98924 138.66636 39230 ft 458 kts 120°
2026-04-26 01:13 -35.01210 138.73865 39219 ft 456 kts 120°
2026-04-26 01:14 -35.03434 138.81113 39223 ft 456 kts 119°
2026-04-26 01:14 -35.05624 138.88352 39230 ft 456 kts 119°
2026-04-26 01:15 -35.07803 138.95598 39221 ft 453 kts 119°
2026-04-26 01:15 -35.09955 139.02755 39219 ft 452 kts 119°
2026-04-26 01:16 -35.12119 139.09952 39235 ft 452 kts 119°
2026-04-26 01:16 -35.14276 139.17156 39219 ft 451 kts 119°
2026-04-26 01:17 -35.16401 139.24268 39219 ft 451 kts 119°
2026-04-26 01:17 -35.18550 139.31477 39215 ft 451 kts 119°
2026-04-26 01:18 -35.20692 139.38681 39221 ft 451 kts 119°
2026-04-26 01:18 -35.22832 139.45895 39220 ft 451 kts 119°
2026-04-26 01:19 -35.24979 139.53100 39239 ft 449 kts 120°
2026-04-26 01:19 -35.27496 139.60032 39216 ft 444 kts 124°
2026-04-26 01:20 -35.30148 139.66800 39213 ft 444 kts 124°
2026-04-26 01:20 -35.32768 139.73657 39213 ft 445 kts 123°
2026-04-26 01:21 -35.35342 139.80561 39214 ft 446 kts 122°
2026-04-26 01:21 -35.37900 139.87492 39287 ft 447 kts 122°
2026-04-26 01:22 -35.39180 139.90969 39426 ft 448 kts 122°
2026-04-26 01:22 -35.40459 139.94445 39577 ft 448 kts 122°
2026-04-26 01:22 -35.41743 139.97934 39687 ft 449 kts 122°
2026-04-26 01:22 -35.43029 140.01426 39712 ft 450 kts 121°
2026-04-26 01:23 -35.45584 140.08385 39706 ft 451 kts 121°
2026-04-26 01:23 -35.48154 140.15405 39706 ft 451 kts 121°
2026-04-26 01:24 -35.50723 140.22429 39708 ft 452 kts 121°
2026-04-26 01:24 -35.53297 140.29482 39704 ft 453 kts 121°
2026-04-26 01:25 -35.55870 140.36556 39700 ft 454 kts 121°
2026-04-26 01:25 -35.58431 140.43613 39709 ft 454 kts 120°
2026-04-26 01:26 -35.60993 140.50682 39701 ft 458 kts 120°
2026-04-26 01:26 -35.63581 140.57841 39698 ft 458 kts 120°
2026-04-26 01:27 -35.66164 140.65006 39712 ft 458 kts 120°
2026-04-26 01:27 -35.68737 140.72148 39697 ft 461 kts 119°
2026-04-26 01:28 -35.71327 140.79366 39699 ft 462 kts 119°
2026-04-26 01:28 -35.73915 140.86595 39694 ft 462 kts 119°
2026-04-26 01:29 -35.76506 140.93842 39696 ft 464 kts 118°
2026-04-26 01:29 -35.79103 141.01128 39692 ft 465 kts 118°
2026-04-26 01:30 -35.81681 141.08378 39696 ft 465 kts 118°
2026-04-26 01:30 -35.84272 141.15681 39687 ft 467 kts 117°
2026-04-26 01:31 -35.86874 141.23028 39686 ft 468 kts 117°
2026-04-26 01:31 -35.89477 141.30400 39705 ft 469 kts 117°
2026-04-26 01:32 -35.92074 141.37769 39693 ft 469 kts 117°
2026-04-26 01:32 -35.94654 141.45112 39694 ft 470 kts 117°
2026-04-26 01:33 -35.97250 141.52516 39694 ft 470 kts 117°
2026-04-26 01:33 -35.99840 141.59921 39693 ft 470 kts 117°
2026-04-26 01:34 -36.02428 141.67339 39692 ft 470 kts 117°
2026-04-26 01:34 -36.04993 141.74706 39694 ft 470 kts 117°
2026-04-26 01:35 -36.07570 141.82127 39702 ft 470 kts 116°
2026-04-26 01:35 -36.10146 141.89558 39692 ft 471 kts 116°
2026-04-26 01:36 -36.12717 141.97002 39688 ft 471 kts 116°
2026-04-26 01:37 -36.16475 142.08228 39687 ft 473 kts 110°
2026-04-26 01:37 -36.18225 142.16048 39689 ft 475 kts 107°
2026-04-26 01:38 -36.19825 142.23986 39687 ft 476 kts 107°
2026-04-26 01:38 -36.21395 142.31945 39691 ft 476 kts 106°
2026-04-26 01:39 -36.22970 142.39909 39687 ft 476 kts 106°
2026-04-26 01:39 -36.24547 142.47871 39688 ft 476 kts 106°
2026-04-26 01:40 -36.26113 142.55786 39693 ft 477 kts 106°
2026-04-26 01:40 -36.27687 142.63776 39693 ft 478 kts 106°
2026-04-26 01:41 -36.29259 142.71791 39692 ft 478 kts 106°
2026-04-26 01:41 -36.30825 142.79805 39696 ft 479 kts 105°
2026-04-26 01:42 -36.32392 142.87849 39700 ft 481 kts 105°
2026-04-26 01:42 -36.33955 142.95910 39700 ft 481 kts 105°
2026-04-26 01:43 -36.35505 143.03933 39699 ft 481 kts 105°
2026-04-26 01:43 -36.37061 143.12022 39706 ft 483 kts 105°
2026-04-26 01:44 -36.38615 143.20128 39706 ft 483 kts 105°
2026-04-26 01:44 -36.40165 143.28245 39709 ft 484 kts 105°
2026-04-26 01:45 -36.41714 143.36386 39716 ft 486 kts 104°
2026-04-26 01:45 -36.43251 143.44502 39715 ft 486 kts 104°
2026-04-26 01:46 -36.44792 143.52672 39714 ft 486 kts 104°
2026-04-26 01:46 -36.46334 143.60878 39719 ft 489 kts 104°
2026-04-26 01:47 -36.47877 143.69119 39721 ft 489 kts 104°
2026-04-26 01:47 -36.49411 143.77348 39718 ft 490 kts 103°
2026-04-26 01:48 -36.50948 143.85625 39725 ft 492 kts 103°
2026-04-26 01:48 -36.52479 143.93910 39721 ft 492 kts 103°
2026-04-26 01:49 -36.54005 144.02203 39721 ft 492 kts 103°
2026-04-26 01:49 -36.55514 144.10434 39728 ft 491 kts 103°
2026-04-26 01:50 -36.57028 144.18727 39726 ft 492 kts 103°
2026-04-26 01:50 -36.58536 144.27016 39730 ft 491 kts 103°
2026-04-26 01:51 -36.60042 144.35336 39731 ft 494 kts 103°
2026-04-26 01:51 -36.61544 144.43665 39729 ft 493 kts 103°
2026-04-26 01:52 -36.63038 144.51989 39733 ft 493 kts 102°
2026-04-26 01:52 -36.64519 144.60276 39739 ft 494 kts 102°
2026-04-26 01:53 -36.66005 144.68627 39737 ft 494 kts 102°
2026-04-26 01:53 -36.67487 144.76986 39733 ft 494 kts 102°
2026-04-26 01:54 -36.68965 144.85360 39739 ft 496 kts 102°
2026-04-26 01:54 -36.70440 144.93757 39739 ft 496 kts 102°
2026-04-26 01:55 -36.71900 145.02105 39734 ft 496 kts 102°
2026-04-26 01:55 -36.73363 145.10501 39739 ft 495 kts 102°
2026-04-26 01:56 -36.74816 145.18881 39737 ft 494 kts 101°
2026-04-26 01:56 -36.76263 145.27269 39737 ft 495 kts 101°
2026-04-26 01:57 -36.77703 145.35636 39735 ft 493 kts 101°
2026-04-26 01:57 -36.79126 145.43960 39737 ft 494 kts 101°
2026-04-26 01:58 -36.80550 145.52325 39743 ft 493 kts 101°
2026-04-26 01:58 -36.81971 145.60706 39738 ft 493 kts 101°
2026-04-26 01:59 -36.83383 145.69068 39740 ft 492 kts 101°
2026-04-26 01:59 -36.84788 145.77433 39737 ft 492 kts 100°
2026-04-26 02:00 -36.86176 145.85731 39739 ft 491 kts 101°
2026-04-26 02:00 -36.87567 145.94086 39742 ft 492 kts 100°
2026-04-26 02:01 -36.88953 146.02450 39746 ft 491 kts 100°
2026-04-26 02:01 -36.90333 146.10810 39743 ft 491 kts 100°
2026-04-26 02:02 -36.91703 146.19154 39744 ft 490 kts 100°
2026-04-26 02:02 -36.93068 146.27497 39750 ft 490 kts 100°
2026-04-26 02:03 -36.94417 146.35790 39745 ft 490 kts 100°
2026-04-26 02:03 -36.95768 146.44129 39747 ft 490 kts 100°
2026-04-26 02:04 -36.97114 146.52478 39747 ft 489 kts 100°
2026-04-26 02:04 -36.98452 146.60827 39752 ft 490 kts 100°
2026-04-26 02:05 -36.99786 146.69175 39750 ft 489 kts 100°
2026-04-26 02:05 -37.01105 146.77473 39749 ft 490 kts 100°
2026-04-26 02:06 -37.02426 146.85827 39749 ft 490 kts 100°
2026-04-26 02:06 -37.03746 146.94213 39751 ft 492 kts 100°
2026-04-26 02:07 -37.05063 147.02613 39751 ft 491 kts 100°
2026-04-26 02:07 -37.06359 147.10917 39747 ft 489 kts 99°
2026-04-26 02:08 -37.07655 147.19282 39743 ft 490 kts 100°
2026-04-26 02:08 -37.08952 147.27681 39746 ft 492 kts 99°
2026-04-26 02:09 -37.10243 147.36081 39744 ft 491 kts 100°
2026-04-26 02:09 -37.11519 147.44427 39738 ft 491 kts 100°
2026-04-26 02:10 -37.12796 147.52819 39732 ft 490 kts 100°
2026-04-26 02:10 -37.14068 147.61221 39730 ft 491 kts 99°
2026-04-26 02:11 -37.15333 147.69618 39731 ft 491 kts 99°
2026-04-26 02:11 -37.16597 147.78054 39730 ft 493 kts 99°
2026-04-26 02:12 -37.17848 147.86442 39730 ft 493 kts 99°
2026-04-26 02:12 -37.19102 147.94897 39731 ft 493 kts 99°
2026-04-26 02:13 -37.20350 148.03353 39728 ft 493 kts 99°
2026-04-26 02:13 -37.21590 148.11796 39727 ft 493 kts 99°
2026-04-26 02:14 -37.22817 148.20192 39718 ft 492 kts 99°
2026-04-26 02:14 -37.24046 148.28649 39722 ft 493 kts 99°
2026-04-26 02:15 -37.25269 148.37111 39720 ft 493 kts 99°
2026-04-26 02:15 -37.26485 148.45565 39719 ft 492 kts 99°
2026-04-26 02:16 -37.27686 148.53963 39730 ft 492 kts 99°
2026-04-26 02:16 -37.28889 148.62421 39731 ft 492 kts 99°
2026-04-26 02:17 -37.30086 148.70879 39734 ft 492 kts 98°
2026-04-26 02:17 -37.31280 148.79346 39729 ft 492 kts 98°
2026-04-26 02:18 -37.32458 148.87759 39716 ft 492 kts 98°
2026-04-26 02:18 -37.33638 148.96237 39729 ft 492 kts 98°
2026-04-26 02:19 -37.34812 149.04711 39709 ft 492 kts 98°
2026-04-26 02:19 -37.35980 149.13183 39722 ft 492 kts 98°
2026-04-26 02:20 -37.37133 149.21602 39728 ft 492 kts 98°
2026-04-26 02:20 -37.38288 149.30079 39707 ft 492 kts 98°
2026-04-26 02:21 -37.39438 149.38564 39707 ft 492 kts 98°
2026-04-26 02:21 -37.40581 149.47049 39732 ft 492 kts 98°
2026-04-26 02:22 -37.41710 149.55476 39724 ft 492 kts 98°
2026-04-26 02:22 -37.42841 149.63964 39705 ft 492 kts 98°
2026-04-26 02:23 -37.43967 149.72455 39716 ft 492 kts 98°
2026-04-26 02:23 -37.45085 149.80944 39717 ft 491 kts 98°
2026-04-26 02:24 -37.46195 149.89423 39710 ft 491 kts 98°
2026-04-26 02:24 -37.47293 149.97848 39716 ft 491 kts 98°
2026-04-26 02:25 -37.48389 150.06321 39718 ft 491 kts 98°
2026-04-26 02:25 -37.49480 150.14796 39722 ft 491 kts 98°
2026-04-26 02:26 -37.50566 150.23276 39721 ft 490 kts 97°
2026-04-26 02:26 -37.51637 150.31695 39718 ft 490 kts 97°
2026-04-26 02:27 -37.52709 150.40173 39714 ft 490 kts 97°
2026-04-26 02:27 -37.53775 150.48647 39717 ft 490 kts 97°
2026-04-26 02:28 -37.54852 150.57121 39722 ft 490 kts 99°
2026-04-26 02:28 -37.56319 150.65459 39727 ft 491 kts 102°
2026-04-26 02:29 -37.57948 150.73817 39722 ft 491 kts 102°
2026-04-26 02:29 -37.59519 150.82190 39722 ft 491 kts 101°
2026-04-26 02:30 -37.61039 150.90597 39728 ft 492 kts 101°
2026-04-26 02:30 -37.62530 150.98964 39730 ft 492 kts 101°
2026-04-26 02:31 -37.64024 151.07383 39729 ft 493 kts 101°
2026-04-26 02:31 -37.65519 151.15837 39726 ft 494 kts 101°
2026-04-26 02:32 -37.67010 151.24291 39732 ft 493 kts 101°
2026-04-26 02:32 -37.68484 151.32689 39729 ft 494 kts 101°
2026-04-26 02:33 -37.69962 151.41150 39733 ft 493 kts 101°
2026-04-26 02:33 -37.71434 151.49614 39731 ft 494 kts 101°
2026-04-26 02:34 -37.72900 151.58081 39733 ft 493 kts 101°
2026-04-26 02:34 -37.74361 151.66554 39735 ft 494 kts 101°
2026-04-26 02:35 -37.75803 151.74961 39743 ft 492 kts 101°
2026-04-26 02:35 -37.77249 151.83423 39742 ft 493 kts 101°
2026-04-26 02:36 -37.78688 151.91889 39739 ft 492 kts 101°
2026-04-26 02:36 -37.80111 152.00291 39744 ft 492 kts 101°
2026-04-26 02:37 -37.81536 152.08751 39745 ft 492 kts 101°
2026-04-26 02:37 -37.82954 152.17205 39754 ft 492 kts 101°
2026-04-26 02:38 -37.84368 152.25679 39749 ft 492 kts 101°
2026-04-26 02:38 -37.85773 152.34137 39751 ft 491 kts 101°
2026-04-26 02:39 -37.87164 152.42550 39752 ft 492 kts 101°
2026-04-26 02:39 -37.88558 152.51018 39750 ft 491 kts 101°
2026-04-26 02:40 -37.89946 152.59492 39759 ft 492 kts 101°
2026-04-26 02:40 -37.91328 152.67969 39760 ft 491 kts 101°
2026-04-26 02:41 -37.92695 152.76395 39763 ft 492 kts 101°
2026-04-26 02:41 -37.94065 152.84876 39761 ft 491 kts 101°
2026-04-26 02:42 -37.95430 152.93373 39768 ft 493 kts 101°
2026-04-26 02:42 -37.96790 153.01877 39767 ft 492 kts 100°
2026-04-26 02:43 -37.98810 153.14586 39767 ft 493 kts 101°
2026-04-26 02:43 -38.00155 153.23100 39768 ft 493 kts 100°
2026-04-26 02:44 -38.01498 153.31645 39771 ft 495 kts 101°
2026-04-26 02:44 -38.02834 153.40188 39776 ft 494 kts 100°
2026-04-26 02:45 -38.04165 153.48739 39772 ft 495 kts 100°
2026-04-26 02:45 -38.05479 153.57222 39775 ft 493 kts 100°
2026-04-26 02:46 -38.06797 153.65773 39779 ft 494 kts 101°
2026-04-26 02:46 -38.08106 153.74317 39785 ft 493 kts 100°
2026-04-26 02:47 -38.09412 153.82876 39779 ft 494 kts 100°
2026-04-26 02:47 -38.10702 153.91379 39778 ft 493 kts 100°
2026-04-26 02:48 -38.11992 153.99929 39781 ft 493 kts 101°
2026-04-26 02:48 -38.13273 154.08455 39783 ft 491 kts 101°
2026-04-26 02:49 -38.14548 154.16988 39777 ft 492 kts 101°
2026-04-26 02:49 -38.15807 154.25454 39784 ft 491 kts 100°
2026-04-26 02:50 -38.17069 154.33992 39784 ft 492 kts 100°
2026-04-26 02:50 -38.18325 154.42531 39787 ft 491 kts 100°
2026-04-26 02:51 -38.19577 154.51085 39789 ft 492 kts 100°
2026-04-26 02:51 -38.20811 154.59568 39788 ft 491 kts 100°
2026-04-26 02:52 -38.22049 154.68119 39787 ft 492 kts 100°
2026-04-26 02:52 -38.23279 154.76661 39786 ft 490 kts 100°
2026-04-26 02:53 -38.24495 154.85151 39792 ft 491 kts 100°
2026-04-26 02:53 -38.25712 154.93693 39795 ft 491 kts 100°
2026-04-26 02:54 -38.26925 155.02250 39790 ft 491 kts 100°
2026-04-26 02:54 -38.28128 155.10792 39794 ft 491 kts 100°
2026-04-26 02:55 -38.29320 155.19292 39790 ft 491 kts 100°
2026-04-26 02:55 -38.30511 155.27837 39792 ft 491 kts 100°
2026-04-26 02:56 -38.31700 155.36414 39797 ft 491 kts 100°
2026-04-26 02:56 -38.32880 155.44975 39797 ft 492 kts 99°
2026-04-26 02:57 -38.34048 155.53503 39788 ft 491 kts 99°
2026-04-26 02:57 -38.35215 155.62061 39800 ft 491 kts 99°
2026-04-26 02:58 -38.36375 155.70621 39794 ft 489 kts 99°
2026-04-26 02:58 -38.37528 155.79180 39801 ft 491 kts 99°
2026-04-26 02:59 -38.38676 155.87745 39802 ft 490 kts 99°
2026-04-26 02:59 -38.39809 155.96251 39793 ft 491 kts 99°
2026-04-26 03:00 -38.40937 156.04772 39807 ft 489 kts 99°
2026-04-26 03:00 -38.42065 156.13332 39809 ft 490 kts 99°
2026-04-26 03:01 -38.43186 156.21895 39794 ft 489 kts 99°
2026-04-26 03:01 -38.44292 156.30397 40044 ft 488 kts 99°
2026-04-26 03:02 -38.44845 156.34666 40244 ft 488 kts 99°
2026-04-26 03:02 -38.45397 156.38937 40372 ft 489 kts 99°
2026-04-26 03:02 -38.45949 156.43223 40508 ft 489 kts 99°
2026-04-26 03:02 -38.46499 156.47506 40707 ft 488 kts 99°
2026-04-26 03:03 -38.47046 156.51782 40865 ft 489 kts 99°
2026-04-26 03:03 -38.47593 156.56067 40950 ft 490 kts 99°
2026-04-26 03:03 -38.48133 156.60304 41095 ft 490 kts 99°
2026-04-26 03:03 -38.48676 156.64586 41278 ft 489 kts 99°
2026-04-26 03:04 -38.49759 156.73159 41307 ft 489 kts 99°
2026-04-26 03:04 -38.50836 156.81739 41306 ft 489 kts 99°
2026-04-26 03:05 -38.51906 156.90314 41308 ft 489 kts 99°
2026-04-26 03:05 -38.52964 156.98841 41306 ft 489 kts 99°
2026-04-26 03:06 -38.54022 157.07423 41306 ft 489 kts 99°
2026-04-26 03:06 -38.55073 157.16003 41306 ft 489 kts 99°
2026-04-26 03:07 -38.56111 157.24532 41308 ft 489 kts 99°
2026-04-26 03:07 -38.57150 157.33121 41306 ft 490 kts 99°
2026-04-26 03:08 -38.58184 157.41726 41308 ft 490 kts 99°
2026-04-26 03:08 -38.59211 157.50325 41312 ft 490 kts 99°
2026-04-26 03:09 -38.59695 157.58945 41305 ft 490 kts 92°
2026-04-26 03:09 -38.59895 157.67649 41307 ft 490 kts 91°
2026-04-26 03:10 -38.60045 157.76352 41308 ft 490 kts 91°
2026-04-26 03:10 -38.60191 157.85060 41311 ft 490 kts 91°
2026-04-26 03:11 -38.60340 157.93765 41311 ft 490 kts 91°
2026-04-26 03:11 -38.60486 158.02416 41313 ft 490 kts 91°
2026-04-26 03:12 -38.60625 158.11120 41313 ft 490 kts 91°
2026-04-26 03:12 -38.60758 158.19829 41313 ft 490 kts 91°
2026-04-26 03:13 -38.60885 158.28538 41318 ft 490 kts 91°
2026-04-26 03:13 -38.61004 158.37188 41317 ft 490 kts 91°
2026-04-26 03:14 -38.61117 158.45901 41313 ft 490 kts 91°
2026-04-26 03:14 -38.61224 158.54608 41316 ft 490 kts 91°
2026-04-26 03:15 -38.61325 158.63326 41317 ft 490 kts 91°
2026-04-26 03:15 -38.61418 158.71978 41315 ft 490 kts 91°
2026-04-26 03:16 -38.61506 158.80693 41316 ft 490 kts 91°
2026-04-26 03:16 -38.61587 158.89400 41317 ft 490 kts 91°
2026-04-26 03:17 -38.61662 158.98119 41319 ft 490 kts 91°
2026-04-26 03:17 -38.61730 159.06785 41327 ft 490 kts 91°
2026-04-26 03:18 -38.61792 159.15502 41322 ft 491 kts 91°
2026-04-26 03:18 -38.61848 159.24223 41327 ft 491 kts 91°
2026-04-26 03:19 -38.61897 159.32953 41328 ft 491 kts 90°
2026-04-26 03:19 -38.61939 159.41692 41320 ft 491 kts 90°
2026-04-26 03:20 -38.61975 159.50350 41325 ft 490 kts 90°
2026-04-26 03:20 -38.62004 159.59048 41330 ft 489 kts 90°
2026-04-26 03:21 -38.62027 159.67754 41330 ft 489 kts 90°
2026-04-26 03:21 -38.62044 159.76457 41330 ft 490 kts 90°
2026-04-26 03:22 -38.62054 159.85105 41328 ft 490 kts 90°
2026-04-26 03:22 -38.62058 159.93812 41335 ft 490 kts 90°
2026-04-26 03:23 -38.62056 160.02523 41330 ft 490 kts 90°
2026-04-26 03:23 -38.62048 160.09769 41330 ft 490 kts 90°
2026-04-26 03:24 -38.62034 160.18480 41335 ft 490 kts 90°
2026-04-26 03:24 -38.62009 160.28616 41335 ft 491 kts 90°
2026-04-26 03:25 -38.61986 160.35923 41333 ft 491 kts 90°
2026-04-26 03:25 -38.61952 160.44593 41335 ft 491 kts 90°
2026-04-26 03:26 -38.61911 160.53318 41331 ft 491 kts 90°
2026-04-26 03:26 -38.61864 160.62048 41335 ft 491 kts 90°
2026-04-26 03:27 -38.61802 160.72188 41328 ft 490 kts 90°
2026-04-26 03:27 -38.61752 160.79422 41329 ft 489 kts 90°
2026-04-26 03:28 -38.61686 160.88114 41334 ft 489 kts 90°
2026-04-26 03:28 -38.61613 160.96820 41331 ft 490 kts 90°
2026-04-26 03:29 -38.61534 161.05536 41335 ft 490 kts 89°
2026-04-26 03:29 -38.61449 161.14189 41333 ft 490 kts 89°
2026-04-26 03:30 -38.61357 161.22907 41336 ft 490 kts 89°
2026-04-26 03:30 -38.61259 161.31622 41330 ft 490 kts 89°
2026-04-26 03:31 -38.61155 161.40277 41335 ft 490 kts 89°
2026-04-26 03:31 -38.61043 161.49001 41327 ft 490 kts 89°
2026-04-26 03:32 -38.60925 161.57723 41340 ft 490 kts 89°
2026-04-26 03:32 -38.60801 161.66449 41322 ft 491 kts 89°
2026-04-26 03:33 -38.60670 161.75175 41326 ft 492 kts 89°
2026-04-26 03:33 -38.60533 161.83866 41335 ft 492 kts 89°
2026-04-26 03:34 -38.60389 161.92603 41335 ft 491 kts 89°
2026-04-26 03:34 -38.60239 162.01308 41334 ft 489 kts 89°
2026-04-26 03:35 -38.60084 162.09941 41333 ft 489 kts 89°
2026-04-26 03:35 -38.59922 162.18627 41335 ft 489 kts 89°
2026-04-26 03:36 -38.59753 162.27312 41331 ft 489 kts 89°
2026-04-26 03:36 -38.59577 162.36012 41335 ft 490 kts 89°
2026-04-26 03:37 -38.59396 162.44663 41332 ft 490 kts 89°
2026-04-26 03:37 -38.59208 162.53359 41331 ft 490 kts 89°
2026-04-26 03:38 -38.59012 162.62079 41327 ft 490 kts 89°
2026-04-26 03:38 -38.58811 162.70788 41328 ft 491 kts 89°
2026-04-26 03:39 -38.58603 162.79505 41337 ft 491 kts 88°
2026-04-26 03:39 -38.58389 162.88168 41335 ft 491 kts 88°
2026-04-26 03:40 -38.58168 162.96881 41322 ft 491 kts 88°
2026-04-26 03:40 -38.57940 163.05606 41323 ft 492 kts 88°
2026-04-26 03:41 -38.57701 163.14351 41333 ft 492 kts 88°
2026-04-26 03:41 -38.57460 163.22970 41328 ft 490 kts 88°
2026-04-26 03:42 -38.57211 163.31670 41319 ft 490 kts 88°
2026-04-26 03:42 -38.56955 163.40394 41325 ft 491 kts 88°
2026-04-26 03:43 -38.56693 163.49109 41321 ft 491 kts 88°
2026-04-26 03:43 -38.56426 163.57766 41328 ft 491 kts 88°
2026-04-26 03:44 -38.56151 163.66480 41328 ft 491 kts 88°
2026-04-26 03:44 -38.55869 163.75201 41331 ft 492 kts 88°
2026-04-26 03:45 -38.55581 163.83938 41315 ft 492 kts 88°
2026-04-26 03:45 -38.55349 163.90801 41313 ft 492 kts 88°
2026-04-26 03:46 -38.55047 163.99584 41317 ft 492 kts 88°
2026-04-26 03:47 -38.54584 164.12693 41316 ft 493 kts 88°
2026-04-26 03:47 -38.54267 164.21443 41316 ft 493 kts 88°
2026-04-26 03:48 -38.53945 164.30136 41316 ft 493 kts 88°
2026-04-26 03:48 -38.53615 164.38886 41318 ft 493 kts 88°
2026-04-26 03:49 -38.53278 164.47644 41309 ft 494 kts 87°
2026-04-26 03:49 -38.52937 164.56344 41316 ft 493 kts 87°
2026-04-26 03:50 -38.52587 164.65082 41309 ft 493 kts 87°
2026-04-26 03:50 -38.52232 164.73818 41309 ft 493 kts 87°
2026-04-26 03:51 -38.51869 164.82571 41303 ft 494 kts 87°
2026-04-26 03:51 -38.51499 164.91332 41310 ft 494 kts 87°
2026-04-26 03:52 -38.51152 164.99404 41303 ft 494 kts 87°
2026-04-26 03:52 -38.50770 165.08157 41305 ft 494 kts 87°
2026-04-26 03:53 -38.50381 165.16918 41307 ft 494 kts 87°
2026-04-26 03:53 -38.49988 165.25616 41308 ft 494 kts 87°
2026-04-26 03:54 -38.49586 165.34374 41304 ft 494 kts 87°
2026-04-26 03:54 -38.49177 165.43134 41307 ft 494 kts 87°
2026-04-26 03:55 -38.48762 165.51883 41298 ft 494 kts 87°
2026-04-26 03:55 -38.48340 165.60641 41303 ft 494 kts 87°
2026-04-26 03:56 -38.47916 165.69330 41299 ft 494 kts 86°
2026-04-26 03:56 -38.47481 165.78082 41303 ft 494 kts 86°
2026-04-26 03:57 -38.47040 165.86832 41292 ft 494 kts 86°
2026-04-26 03:57 -38.46593 165.95579 41289 ft 494 kts 86°
2026-04-26 03:58 -38.46139 166.04326 41296 ft 494 kts 86°
2026-04-26 03:58 -38.45681 166.13012 41294 ft 494 kts 86°
2026-04-26 03:59 -38.45214 166.21759 41288 ft 494 kts 86°
2026-04-26 03:59 -38.44741 166.30507 41288 ft 494 kts 86°
2026-04-26 04:00 -38.44260 166.39257 41287 ft 494 kts 86°
2026-04-26 04:00 -38.43776 166.47955 41288 ft 495 kts 86°
2026-04-26 04:01 -38.43283 166.56705 41288 ft 495 kts 86°
2026-04-26 04:01 -38.42781 166.65474 41283 ft 496 kts 86°
2026-04-26 04:02 -38.42274 166.74237 41283 ft 496 kts 86°
2026-04-26 04:02 -38.41763 166.82943 41282 ft 496 kts 86°
2026-04-26 04:03 -38.41242 166.91712 41283 ft 496 kts 86°
2026-04-26 04:03 -38.40715 167.00482 41278 ft 496 kts 86°
2026-04-26 04:04 -38.40180 167.09260 41275 ft 497 kts 86°
2026-04-26 04:04 -38.39643 167.17979 41273 ft 496 kts 86°
2026-04-26 04:05 -38.39095 167.26748 41277 ft 497 kts 85°
2026-04-26 04:05 -38.38540 167.35530 41282 ft 497 kts 85°
2026-04-26 04:06 -38.37979 167.44315 41274 ft 497 kts 85°
2026-04-26 04:06 -38.37415 167.53034 41272 ft 497 kts 85°
2026-04-26 04:07 -38.36840 167.61815 41274 ft 497 kts 85°
2026-04-26 04:07 -38.36259 167.70595 41266 ft 498 kts 85°
2026-04-26 04:08 -38.35671 167.79374 41267 ft 498 kts 85°
2026-04-26 04:08 -38.35076 167.88162 41264 ft 498 kts 85°
2026-04-26 04:09 -38.34480 167.96880 41267 ft 498 kts 85°
2026-04-26 04:09 -38.33871 168.05674 41261 ft 499 kts 85°
2026-04-26 04:10 -38.33255 168.14469 41267 ft 499 kts 85°
2026-04-26 04:10 -38.32633 168.23275 41264 ft 499 kts 85°
2026-04-26 04:11 -38.32008 168.32013 41258 ft 499 kts 85°
2026-04-26 04:11 -38.31372 168.40817 41251 ft 500 kts 85°
2026-04-26 04:12 -38.30730 168.49616 41253 ft 499 kts 85°
2026-04-26 04:12 -38.30081 168.58412 41251 ft 499 kts 85°
2026-04-26 04:13 -38.29425 168.67206 41253 ft 499 kts 84°
2026-04-26 04:13 -38.28768 168.75938 41254 ft 500 kts 84°
2026-04-26 04:14 -38.28098 168.84750 41250 ft 500 kts 84°
2026-04-26 04:14 -38.27421 168.93560 41252 ft 500 kts 84°
2026-04-26 04:15 -38.26737 169.02379 41246 ft 500 kts 84°
2026-04-26 04:15 -38.26052 169.11131 41251 ft 500 kts 84°
2026-04-26 04:16 -38.25355 169.19935 41245 ft 500 kts 84°
2026-04-26 04:16 -38.24652 169.28745 41244 ft 500 kts 84°
2026-04-26 04:17 -38.23942 169.37555 41243 ft 500 kts 84°
2026-04-26 04:17 -38.23230 169.46296 41239 ft 501 kts 84°
2026-04-26 04:18 -38.22507 169.55108 41237 ft 501 kts 84°
2026-04-26 04:18 -38.21775 169.63932 41236 ft 501 kts 84°
2026-04-26 04:19 -38.21038 169.72745 41231 ft 501 kts 84°
2026-04-26 04:19 -38.20299 169.81501 41234 ft 501 kts 84°
2026-04-26 04:20 -38.19547 169.90326 41231 ft 502 kts 84°
2026-04-26 04:20 -38.18789 169.99147 41232 ft 502 kts 84°
2026-04-26 04:21 -38.18023 170.07978 41227 ft 502 kts 84°
2026-04-26 04:21 -38.17256 170.16747 41230 ft 502 kts 83°
2026-04-26 04:22 -38.16476 170.25579 41223 ft 503 kts 83°
2026-04-26 04:22 -38.15689 170.34422 41221 ft 504 kts 83°
2026-04-26 04:23 -38.14895 170.43265 41224 ft 504 kts 83°
2026-04-26 04:23 -38.14100 170.52045 41217 ft 504 kts 83°
2026-04-26 04:24 -38.14072 170.52349 41217 ft 504 kts 83°
2026-04-26 05:04 -38.13343 170.60288 41221 ft 505 kts 83°
2026-04-26 05:05 -38.12531 170.69144 41219 ft 505 kts 83°
2026-04-26 05:05 -38.11711 170.77991 41214 ft 505 kts 83°
2026-04-26 05:06 -38.10506 170.86748 41218 ft 504 kts 70°
2026-04-26 05:06 -38.07762 170.94910 41215 ft 503 kts 64°
2026-04-26 05:07 -38.04873 171.02946 41212 ft 505 kts 64°
2026-04-26 05:07 -38.01964 171.11055 41208 ft 505 kts 64°
2026-04-26 05:08 -37.99224 171.18689 41208 ft 505 kts 64°
2026-04-26 05:08 -37.96312 171.26784 41205 ft 505 kts 64°
2026-04-26 05:09 -37.93394 171.34877 41206 ft 506 kts 64°
2026-04-26 05:09 -37.90466 171.42978 41203 ft 506 kts 64°
2026-04-26 05:10 -37.87548 171.51028 41193 ft 506 kts 64°
2026-04-26 05:10 -37.84609 171.59113 41200 ft 505 kts 64°
2026-04-26 05:11 -37.81671 171.67175 41193 ft 505 kts 64°
2026-04-26 05:11 -37.78727 171.75232 41197 ft 505 kts 64°
2026-04-26 05:12 -37.75770 171.83304 41194 ft 506 kts 64°
2026-04-26 05:12 -37.72833 171.91301 41193 ft 505 kts 64°
2026-04-26 05:13 -37.69868 171.99352 41192 ft 506 kts 64°
2026-04-26 05:13 -37.66898 172.07397 41191 ft 506 kts 63°
2026-04-26 05:14 -37.63922 172.15434 41193 ft 506 kts 63°
2026-04-26 05:14 -37.60936 172.23476 41193 ft 506 kts 63°
2026-04-26 05:15 -37.57948 172.31505 41186 ft 506 kts 63°
2026-04-26 05:15 -37.54973 172.39476 41085 ft 506 kts 63°
2026-04-26 05:16 -37.53476 172.43480 40836 ft 504 kts 63°
2026-04-26 05:16 -37.51993 172.47442 40481 ft 498 kts 63°
2026-04-26 05:16 -37.50509 172.51398 39706 ft 501 kts 64°
2026-04-26 05:16 -37.49016 172.55374 38961 ft 503 kts 64°
2026-04-26 05:17 -37.47517 172.59363 38133 ft 504 kts 64°
2026-04-26 05:17 -37.46018 172.63345 37441 ft 502 kts 64°
2026-04-26 05:17 -37.44528 172.67300 36794 ft 499 kts 64°
2026-04-26 05:17 -37.43041 172.71243 36137 ft 497 kts 64°
2026-04-26 05:18 -37.41558 172.75167 35464 ft 496 kts 65°
2026-04-26 05:18 -37.40099 172.79025 34789 ft 495 kts 65°
2026-04-26 05:18 -37.38617 172.82937 34005 ft 497 kts 65°
2026-04-26 05:18 -37.37132 172.86853 33303 ft 494 kts 65°
2026-04-26 05:19 -37.35659 172.90735 32734 ft 489 kts 65°
2026-04-26 05:19 -37.34199 172.94574 32188 ft 485 kts 65°
2026-04-26 05:19 -37.32751 172.98378 31630 ft 481 kts 65°
2026-04-26 05:19 -37.31314 173.02148 31099 ft 477 kts 65°
2026-04-26 05:20 -37.29887 173.05887 30535 ft 473 kts 65°
2026-04-26 05:20 -37.28469 173.09600 29942 ft 470 kts 65°
2026-04-26 05:20 -37.27081 173.13227 29379 ft 465 kts 65°
2026-04-26 05:20 -37.25689 173.16863 28851 ft 460 kts 65°
2026-04-26 05:21 -37.24310 173.20460 28318 ft 455 kts 65°
2026-04-26 05:21 -37.22946 173.24016 27808 ft 450 kts 65°
2026-04-26 05:21 -37.21593 173.27536 27277 ft 446 kts 65°
2026-04-26 05:21 -37.20253 173.31020 26761 ft 441 kts 65°
2026-04-26 05:22 -37.18924 173.34471 26239 ft 437 kts 65°
2026-04-26 05:22 -37.17608 173.37885 25736 ft 434 kts 65°
2026-04-26 05:22 -37.16298 173.41279 25218 ft 430 kts 65°
2026-04-26 05:22 -37.15105 173.44685 24736 ft 424 kts 73°
2026-04-26 05:23 -37.14364 173.48184 24256 ft 419 kts 79°
2026-04-26 05:23 -37.13776 173.51737 23766 ft 415 kts 80°
2026-04-26 05:23 -37.13207 173.55276 23195 ft 412 kts 81°
2026-04-26 05:23 -37.12641 173.58766 22677 ft 407 kts 81°
2026-04-26 05:24 -37.12077 173.62220 22169 ft 402 kts 81°
2026-04-26 05:24 -37.11517 173.65630 21671 ft 397 kts 81°
2026-04-26 05:24 -37.10962 173.68993 21169 ft 393 kts 81°
2026-04-26 05:24 -37.10411 173.72329 20670 ft 389 kts 81°
2026-04-26 05:25 -37.09862 173.75637 20175 ft 385 kts 81°
2026-04-26 05:25 -37.09325 173.78866 19672 ft 382 kts 81°
2026-04-26 05:25 -37.08787 173.82098 19178 ft 379 kts 81°
2026-04-26 05:25 -37.08249 173.85324 18676 ft 376 kts 81°
2026-04-26 05:26 -37.07714 173.88524 18156 ft 373 kts 81°
2026-04-26 05:26 -37.07185 173.91687 17646 ft 369 kts 81°
2026-04-26 05:26 -37.06661 173.94813 17152 ft 365 kts 81°
2026-04-26 05:26 -37.06141 173.97907 16680 ft 361 kts 81°
2026-04-26 05:27 -37.05626 174.00971 16184 ft 359 kts 81°
2026-04-26 05:27 -37.05120 174.03975 15738 ft 356 kts 81°
2026-04-26 05:27 -37.04616 174.06952 15583 ft 343 kts 81°
2026-04-26 05:27 -37.04130 174.09816 15391 ft 334 kts 81°
2026-04-26 05:28 -37.03651 174.12646 14986 ft 331 kts 81°
2026-04-26 05:28 -37.03175 174.15472 14479 ft 332 kts 81°
2026-04-26 05:28 -37.02696 174.18318 13713 ft 339 kts 80°
2026-04-26 05:28 -37.02200 174.21235 12992 ft 343 kts 80°
2026-04-26 05:29 -37.01702 174.24146 12424 ft 342 kts 80°
2026-04-26 05:29 -37.01205 174.27047 11889 ft 340 kts 80°
2026-04-26 05:29 -37.00710 174.29936 11338 ft 338 kts 80°
2026-04-26 05:29 -37.00226 174.32764 10835 ft 336 kts 80°
2026-04-26 05:30 -36.99737 174.35614 10326 ft 334 kts 80°
2026-04-26 05:30 -36.99255 174.38416 10043 ft 324 kts 80°
2026-04-26 05:30 -36.98788 174.41119 9818 ft 312 kts 80°
2026-04-26 05:30 -36.98335 174.43723 9583 ft 302 kts 80°
2026-04-26 05:31 -36.97765 174.46232 9222 ft 298 kts 74°
2026-04-26 05:31 -36.97106 174.48675 8818 ft 295 kts 73°
2026-04-26 05:31 -36.96438 174.51098 8399 ft 294 kts 73°
2026-04-26 05:31 -36.95775 174.53503 7998 ft 292 kts 73°
2026-04-26 05:32 -36.95125 174.55864 7593 ft 290 kts 73°
2026-04-26 05:32 -36.94471 174.58242 7189 ft 288 kts 73°
2026-04-26 05:32 -36.93820 174.60609 6780 ft 288 kts 73°
2026-04-26 05:32 -36.93170 174.62972 6362 ft 287 kts 73°
2026-04-26 05:33 -36.92525 174.65313 5955 ft 284 kts 73°
2026-04-26 05:33 -36.91887 174.67624 5679 ft 277 kts 73°
2026-04-26 05:33 -36.91267 174.69868 5434 ft 270 kts 73°
2026-04-26 05:33 -36.90655 174.72083 5221 ft 269 kts 73°
2026-04-26 05:34 -36.90101 174.74307 4976 ft 267 kts 79°
2026-04-26 05:34 -36.89734 174.76570 4717 ft 265 kts 83°
2026-04-26 05:34 -36.89416 174.78831 4458 ft 264 kts 83°
2026-04-26 05:34 -36.89100 174.81086 4206 ft 263 kts 83°
2026-04-26 05:35 -36.88786 174.83302 3959 ft 262 kts 83°
2026-04-26 05:35 -36.88467 174.85538 3700 ft 258 kts 82°
2026-04-26 05:35 -36.88159 174.87671 3431 ft 241 kts 82°
2026-04-26 05:35 -36.87873 174.89646 3250 ft 222 kts 82°
2026-04-26 05:36 -36.87605 174.91496 3130 ft 215 kts 82°
2026-04-26 05:36 -36.87340 174.93343 3016 ft 216 kts 82°
2026-04-26 05:36 -36.87074 174.95201 2984 ft 218 kts 82°
2026-04-26 05:36 -36.86812 174.97067 2982 ft 217 kts 83°
2026-04-26 05:37 -36.86836 174.98933 2996 ft 214 kts 107°
2026-04-26 05:37 -36.87518 175.00529 2998 ft 207 kts 137°
2026-04-26 05:37 -36.88673 175.01493 2999 ft 200 kts 160°
2026-04-26 05:37 -36.89929 175.02072 2980 ft 188 kts 165°
2026-04-26 05:38 -36.91169 175.02542 2980 ft 185 kts 170°
2026-04-26 05:38 -36.92436 175.02659 2983 ft 182 kts 188°
2026-04-26 05:38 -36.93643 175.02231 3003 ft 181 kts 208°
2026-04-26 05:38 -36.94631 175.01284 3004 ft 177 kts 226°
2026-04-26 05:39 -36.95266 175.00048 3013 ft 164 kts 246°
2026-04-26 05:39 -36.95649 174.98726 2990 ft 161 kts 248°
2026-04-26 05:39 -36.96019 174.97423 2874 ft 156 kts 248°
2026-04-26 05:39 -36.96366 174.96180 2642 ft 150 kts 249°
2026-04-26 05:40 -36.96700 174.94966 2428 ft 143 kts 248°
2026-04-26 05:40 -36.97011 174.93841 2228 ft 135 kts 249°
2026-04-26 05:40 -36.97310 174.92762 2067 ft 130 kts 249°
2026-04-26 05:40 -36.97603 174.91702 1881 ft 128 kts 249°
2026-04-26 05:41 -36.97894 174.90647 1715 ft 129 kts 249°
2026-04-26 05:41 -36.98186 174.89585 1547 ft 129 kts 249°
2026-04-26 05:41 -36.98475 174.88534 1368 ft 127 kts 249°
2026-04-26 05:41 -36.98759 174.87484 1211 ft 128 kts 249°
2026-04-26 05:42 -36.99045 174.86431 1016 ft 127 kts 249°
2026-04-26 05:42 -36.99338 174.85378 840 ft 129 kts 249°
2026-04-26 05:42 -36.99637 174.84338 689 ft 129 kts 249°
2026-04-26 05:42 -36.99923 174.83278 490 ft 127 kts 251°
2026-04-26 05:43 -37.00209 174.82239 353 ft 128 kts 251°
2026-04-26 05:43 -37.00501 174.81179 172 ft 130 kts 251°
2026-04-26 05:43 -37.00795 174.80107 38 ft 128 kts 250°
2026-04-26 05:43 -37.01036 174.79236 32 ft 78 kts 251°
2026-04-26 05:44 -37.01147 174.78836 32 ft 35 kts 251°
2026-04-26 05:44 -37.01225 174.78553 31 ft 34 kts 253°
2026-04-26 05:44 -37.01245 174.78277 32 ft 27 kts 280°
2026-04-26 05:44 -37.01226 174.78160 32 ft 9 kts 281°
2026-04-26 05:45 -37.01198 174.78102 32 ft 8 kts 330°
2026-04-26 05:45 -37.01153 174.78127 32 ft 9 kts 57°
2026-04-26 05:45 -37.01127 174.78211 32 ft 12 kts 71°
2026-04-26 05:45 -37.01081 174.78279 32 ft 12 kts 25°
2026-04-26 05:46 -37.01006 174.78267 32 ft 7 kts 329°
2026-04-26 05:46 -37.00961 174.78214 32 ft 11 kts 305°
2026-04-26 05:46 -37.00931 174.78152 32 ft 2 kts 297°
2026-04-26 05:46 -37.00918 174.78123 32 ft 6 kts 298°
2026-04-26 05:47 -37.00892 174.78099 32 ft 4 kts
2026-04-26 05:47 -37.00855 174.78123 32 ft 6 kts 34°
2026-04-26 05:47 -37.00841 174.78137 32 ft 2 kts 39°
2026-04-26 05:47 -37.00834 174.78144 32 ft 0 kts 39°